[[{"header":{"parameterUnit":"m.s-1","parameterCategory":1,"la1":30.6,"la2":29.2853,"lo1":-89.7004,"lo2":-87.6739,"dx":0.0162,"dy":0.0183,"nx":112,"ny":82,"refTime":"2023-02-06T06:00:00:Z","depth":0,"parameterNumber":2,"parameterNumberName":"U-component_of_WINDS"},"data":[0.0,0.0,0.0,0.0,0.0,0.0,0.0,0.0,0.0,0.0,0.0,0.0,0.0,0.0,0.0,0.0,0.0,0.0,0.0,0.0,0.0,0.0,0.0,0.0,0.0,0.0,0.0,0.0,0.0,0.0,0.0,0.0,0.0,0.0,0.0,0.0,0.0,0.0,0.0,0.0,0.0,0.0,0.0,0.0,0.0,0.0,0.0,0.0,0.0,0.0,0.0,0.0,0.0,0.0,0.0,0.0,0.0,0.0,0.0,0.0,0.0,0.0,0.0,0.0,0.0,0.0,0.0,0.0,0.0,0.0,0.0,0.0,0.0,0.0,0.0,0.0,0.0,0.0,0.0,0.0,0.0,0.0,0.0,0.0,0.0,0.0,0.0,0.0,0.0,0.0,0.0,5.1797,5.1797,5.1797,5.1797,5.1797,5.1797,5.1797,0.0,0.0,0.0,0.0,0.0,0.0,0.0,0.0,0.0,0.0,0.0,0.0,0.0,0.0,0.0,0.0,0.0,0.0,0.0,0.0,0.0,0.0,0.0,0.0,0.0,0.0,0.0,0.0,0.0,0.0,0.0,0.0,0.0,0.0,0.0,0.0,0.0,0.0,0.0,0.0,0.0,0.0,0.0,0.0,0.0,0.0,0.0,0.0,0.0,0.0,0.0,0.0,0.0,0.0,0.0,0.0,0.0,0.0,0.0,0.0,0.0,0.0,0.0,0.0,0.0,0.0,0.0,0.0,0.0,0.0,0.0,0.0,0.0,0.0,0.0,0.0,0.0,0.0,0.0,0.0,0.0,0.0,0.0,0.0,0.0,0.0,0.0,0.0,0.0,0.0,0.0,0.0,0.0,0.0,0.0,0.0,0.0,0.0,0.0,0.0,0.0,0.0,0.0,0.0,5.2773,5.3516,5.3594,5.3594,5.3594,5.3594,5.3594,5.3594,0.0,0.0,0.0,0.0,0.0,0.0,0.0,0.0,0.0,0.0,0.0,0.0,0.0,0.0,0.0,0.0,0.0,0.0,0.0,0.0,0.0,0.0,0.0,0.0,0.0,0.0,0.0,0.0,0.0,0.0,0.0,0.0,0.0,0.0,0.0,0.0,0.0,0.0,0.0,0.0,0.0,0.0,0.0,0.0,0.0,0.0,0.0,0.0,0.0,0.0,0.0,0.0,0.0,0.0,0.0,0.0,0.0,0.0,0.0,0.0,0.0,0.0,0.0,0.0,0.0,0.0,0.0,0.0,0.0,0.0,0.0,0.0,0.0,0.0,0.0,0.0,0.0,0.0,0.0,0.0,0.0,0.0,0.0,0.0,0.0,0.0,0.0,0.0,0.0,0.0,0.0,0.0,0.0,0.0,0.0,0.0,0.0,0.0,0.0,0.0,0.0,0.0,0.0,5.3164,5.3555,5.3945,5.3984,5.3984,5.3984,5.3984,5.3984,5.3984,5.3242,0.0,0.0,0.0,0.0,0.0,0.0,0.0,0.0,0.0,0.0,0.0,0.0,0.0,0.0,0.0,0.0,0.0,0.0,0.0,0.0,0.0,0.0,0.0,0.0,0.0,0.0,0.0,0.0,0.0,0.0,0.0,0.0,0.0,0.0,0.0,0.0,0.0,0.0,0.0,0.0,0.0,0.0,0.0,0.0,0.0,0.0,0.0,0.0,0.0,0.0,0.0,0.0,0.0,0.0,0.0,0.0,0.0,0.0,0.0,0.0,0.0,0.0,0.0,0.0,0.0,0.0,0.0,0.0,0.0,0.0,0.0,0.0,0.0,0.0,0.0,0.0,0.0,0.0,0.0,0.0,0.0,0.0,0.0,0.0,0.0,0.0,0.0,0.0,0.0,0.0,0.0,0.0,0.0,0.0,0.0,0.0,0.0,0.0,0.0,0.0,0.0,0.0,5.4297,5.4375,5.4609,5.4609,5.4609,5.4609,5.4609,5.4609,5.4609,5.4609,0.0,0.0,0.0,0.0,0.0,0.0,0.0,0.0,0.0,0.0,0.0,0.0,0.0,0.0,0.0,0.0,0.0,0.0,0.0,0.0,0.0,0.0,0.0,0.0,0.0,0.0,0.0,0.0,0.0,0.0,0.0,0.0,0.0,0.0,0.0,0.0,0.0,0.0,0.0,0.0,0.0,0.0,0.0,0.0,0.0,0.0,0.0,0.0,0.0,0.0,0.0,0.0,0.0,0.0,0.0,0.0,0.0,0.0,0.0,0.0,0.0,0.0,0.0,0.0,0.0,0.0,0.0,0.0,0.0,0.0,0.0,0.0,0.0,0.0,0.0,0.0,0.0,0.0,0.0,0.0,0.0,0.0,0.0,0.0,0.0,0.0,0.0,0.0,0.0,0.0,0.0,0.0,0.0,0.0,0.0,0.0,0.0,0.0,0.0,0.0,0.0,0.0,5.5195,5.5508,5.6328,5.6406,5.6406,5.6406,5.6406,5.6406,5.6406,5.6406,0.0,0.0,0.0,0.0,0.0,0.0,0.0,0.0,0.0,0.0,0.0,0.0,0.0,0.0,0.0,0.0,0.0,0.0,0.0,0.0,0.0,0.0,0.0,0.0,0.0,0.0,0.0,0.0,0.0,0.0,0.0,0.0,0.0,0.0,0.0,0.0,0.0,0.0,0.0,0.0,0.0,0.0,0.0,0.0,0.0,0.0,0.0,0.0,0.0,0.0,0.0,0.0,0.0,0.0,0.0,0.0,0.0,0.0,0.0,0.0,0.0,0.0,0.0,0.0,0.0,0.0,0.0,0.0,0.0,0.0,0.0,0.0,0.0,0.0,0.0,0.0,0.0,0.0,0.0,0.0,0.0,0.0,0.0,0.0,0.0,0.0,0.0,0.0,0.0,0.0,0.0,0.0,0.0,0.0,0.0,0.0,0.0,0.0,0.0,0.0,0.0,0.0,5.6094,5.625,0.0,5.6601,5.6601,5.6601,5.6601,5.6601,5.6601,0.0,0.0,0.0,0.0,0.0,0.0,0.0,0.0,0.0,0.0,0.0,0.0,0.0,0.0,0.0,0.0,0.0,0.0,0.0,0.0,0.0,0.0,0.0,0.0,0.0,0.0,0.0,0.0,0.0,0.0,0.0,0.0,0.0,0.0,0.0,0.0,0.0,0.0,0.0,0.0,0.0,0.0,0.0,0.0,0.0,0.0,0.0,0.0,0.0,0.0,0.0,0.0,0.0,0.0,0.0,0.0,0.0,0.0,0.0,0.0,0.0,0.0,0.0,0.0,0.0,0.0,0.0,0.0,0.0,0.0,0.0,0.0,0.0,0.0,0.0,0.0,0.0,0.0,0.0,0.0,0.0,0.0,0.0,0.0,0.0,0.0,0.0,0.0,0.0,0.0,0.0,0.0,0.0,0.0,0.0,0.0,0.0,0.0,0.0,0.0,0.0,0.0,5.6523,5.6601,5.6601,0.0,5.6601,5.6601,5.6601,5.6601,5.6719,5.6992,0.0,0.0,0.0,0.0,0.0,0.0,0.0,0.0,0.0,0.0,0.0,0.0,0.0,0.0,0.0,0.0,0.0,0.0,0.0,0.0,0.0,0.0,0.0,0.0,0.0,0.0,0.0,0.0,0.0,0.0,0.0,0.0,0.0,0.0,0.0,0.0,0.0,0.0,0.0,0.0,0.0,0.0,0.0,0.0,0.0,0.0,0.0,0.0,0.0,0.0,0.0,0.0,0.0,0.0,0.0,0.0,0.0,0.0,0.0,0.0,0.0,0.0,0.0,0.0,0.0,0.0,0.0,0.0,0.0,0.0,0.0,0.0,0.0,0.0,0.0,0.0,0.0,0.0,0.0,0.0,0.0,0.0,0.0,0.0,0.0,0.0,0.0,0.0,0.0,0.0,0.0,0.0,0.0,0.0,0.0,0.0,0.0,0.0,0.0,0.0,0.0,0.0,5.6601,5.6601,5.6601,5.664,5.664,5.664,5.664,5.664,5.6992,0.0,0.0,0.0,0.0,0.0,0.0,0.0,0.0,0.0,0.0,0.0,0.0,0.0,0.0,0.0,0.0,0.0,0.0,0.0,0.0,0.0,0.0,0.0,0.0,0.0,0.0,0.0,0.0,0.0,0.0,0.0,0.0,0.0,0.0,0.0,0.0,0.0,0.0,0.0,0.0,0.0,0.0,0.0,0.0,0.0,0.0,0.0,0.0,0.0,0.0,0.0,0.0,0.0,0.0,0.0,0.0,0.0,0.0,0.0,0.0,0.0,0.0,0.0,0.0,0.0,0.0,0.0,0.0,0.0,0.0,0.0,0.0,0.0,0.0,0.0,0.0,0.0,0.0,0.0,0.0,0.0,0.0,0.0,0.0,0.0,0.0,0.0,0.0,0.0,0.0,0.0,0.0,0.0,0.0,0.0,0.0,0.0,0.0,0.0,0.0,0.0,0.0,0.0,5.7422,5.7539,5.7734,5.8359,5.8437,5.8437,5.8437,5.8437,5.8555,5.8789,0.0,0.0,0.0,0.0,0.0,0.0,0.0,0.0,0.0,0.0,0.0,0.0,0.0,0.0,0.0,0.0,0.0,0.0,0.0,0.0,0.0,0.0,0.0,0.0,0.0,0.0,0.0,0.0,0.0,0.0,0.0,0.0,0.0,0.0,0.0,0.0,0.0,0.0,0.0,0.0,0.0,0.0,0.0,0.0,0.0,0.0,0.0,0.0,0.0,0.0,0.0,0.0,0.0,0.0,0.0,0.0,0.0,0.0,0.0,0.0,0.0,0.0,0.0,0.0,0.0,0.0,0.0,0.0,0.0,0.0,0.0,0.0,0.0,0.0,0.0,0.0,0.0,0.0,0.0,0.0,0.0,0.0,0.0,0.0,0.0,0.0,0.0,0.0,0.0,0.0,0.0,0.0,0.0,0.0,0.0,0.0,0.0,0.0,0.0,0.0,0.0,0.0,5.832,5.8437,5.8633,5.914,5.9219,5.9219,5.9219,5.9219,5.9336,5.9648,0.0,0.0,0.0,0.0,0.0,0.0,0.0,0.0,0.0,0.0,0.0,0.0,0.0,0.0,0.0,0.0,0.0,0.0,0.0,0.0,0.0,0.0,0.0,0.0,0.0,0.0,0.0,0.0,0.0,0.0,0.0,0.0,0.0,0.0,0.0,0.0,0.0,0.0,0.0,0.0,0.0,0.0,0.0,0.0,0.0,0.0,0.0,0.0,0.0,0.0,0.0,0.0,0.0,0.0,0.0,0.0,0.0,0.0,0.0,0.0,0.0,0.0,0.0,0.0,0.0,0.0,0.0,0.0,0.0,0.0,0.0,0.0,0.0,0.0,0.0,0.0,0.0,0.0,0.0,0.0,0.0,0.0,0.0,0.0,0.0,0.0,0.0,0.0,0.0,0.0,0.0,0.0,0.0,0.0,0.0,0.0,0.0,0.0,0.0,0.0,0.0,0.0,5.9219,5.9297,5.9336,5.9414,5.9414,5.9414,5.9414,5.9414,5.9726,6.0469,0.0,0.0,0.0,0.0,0.0,0.0,0.0,0.0,0.0,0.0,0.0,0.0,0.0,0.0,0.0,0.0,0.0,0.0,0.0,0.0,0.0,0.0,0.0,0.0,0.0,0.0,0.0,0.0,0.0,0.0,0.0,0.0,0.0,0.0,0.0,0.0,0.0,0.0,0.0,0.0,0.0,0.0,0.0,0.0,0.0,0.0,0.0,0.0,0.0,0.0,0.0,0.0,0.0,0.0,0.0,0.0,0.0,0.0,0.0,0.0,5.1328,0.0,0.0,0.0,0.0,0.0,0.0,0.0,0.0,0.0,0.0,0.0,0.0,0.0,0.0,0.0,0.0,0.0,0.0,0.0,0.0,0.0,0.0,0.0,0.0,0.0,0.0,0.0,0.0,0.0,0.0,0.0,0.0,0.0,0.0,0.0,0.0,0.0,0.0,0.0,0.0,0.0,6.0039,6.0156,6.039,6.1094,6.1172,6.1172,6.1172,6.1172,6.125,6.1406,0.0,0.0,0.0,0.0,0.0,0.0,0.0,0.0,0.0,0.0,0.0,0.0,0.0,0.0,0.0,0.0,0.0,0.0,0.0,0.0,0.0,0.0,0.0,0.0,0.0,0.0,0.0,0.0,0.0,0.0,0.0,0.0,0.0,0.0,0.0,0.0,0.0,0.0,0.0,0.0,0.0,0.0,0.0,0.0,0.0,0.0,0.0,0.0,0.0,0.0,0.0,0.0,0.0,0.0,0.0,0.0,0.0,0.0,0.0,0.0,0.0,5.1406,0.0,0.0,0.0,0.0,0.0,0.0,0.0,0.0,0.0,0.0,0.0,0.0,0.0,0.0,0.0,0.0,0.0,0.0,0.0,0.0,0.0,0.0,0.0,0.0,0.0,0.0,0.0,0.0,0.0,0.0,0.0,0.0,0.0,0.0,0.0,0.0,0.0,0.0,0.0,0.0,6.0937,6.1015,6.1211,6.164,6.1719,6.1719,6.1719,6.1719,6.1719,6.1719,6.1719,0.0,0.0,0.0,0.0,0.0,0.0,0.0,0.0,0.0,0.0,0.0,0.0,0.0,0.0,0.0,0.0,0.0,0.0,0.0,0.0,0.0,0.0,0.0,0.0,0.0,0.0,0.0,0.0,0.0,0.0,0.0,0.0,0.0,0.0,0.0,0.0,0.0,0.0,0.0,0.0,0.0,0.0,0.0,0.0,0.0,0.0,0.0,0.0,0.0,0.0,0.0,0.0,0.0,0.0,5.1396,5.1406,5.1367,5.1367,5.1406,5.1406,5.1406,5.1406,0.0,0.0,0.0,0.0,0.0,0.0,0.0,0.0,0.0,0.0,0.0,0.0,0.0,0.0,0.0,0.0,0.0,0.0,0.0,0.0,0.0,0.0,0.0,0.0,0.0,5.6172,5.664,0.0,0.0,0.0,0.0,0.0,0.0,0.0,0.0,0.0,0.0,0.0,0.0,6.1601,6.1719,6.1758,6.1914,6.1914,6.1992,6.2148,6.2148,6.2148,6.2148,6.1992,6.1914,0.0,0.0,0.0,0.0,0.0,0.0,0.0,0.0,0.0,0.0,0.0,0.0,0.0,0.0,0.0,0.0,0.0,0.0,0.0,0.0,0.0,0.0,0.0,0.0,0.0,0.0,0.0,0.0,0.0,0.0,0.0,0.0,4.8789,4.8906,0.0,0.0,0.0,0.0,0.0,0.0,0.0,0.0,0.0,0.0,0.0,0.0,0.0,0.0,5.1406,5.1406,5.1406,5.1406,5.1292,5.1275,5.1406,5.1289,5.1289,5.1406,5.1406,0.0,5.1406,5.1406,0.0,0.0,0.0,0.0,0.0,0.0,0.0,0.0,0.0,0.0,0.0,0.0,0.0,0.0,0.0,0.0,0.0,0.0,0.0,0.0,0.0,0.0,5.6445,5.6445,5.7109,5.7695,0.0,5.7578,5.7578,5.7695,0.0,0.0,0.0,0.0,0.0,0.0,0.0,0.0,6.168,6.1719,6.1992,6.2734,6.2812,6.3125,6.3906,6.3945,6.3945,6.3945,6.3242,6.2812,6.2812,6.2109,0.0,0.0,0.0,0.0,0.0,0.0,0.0,0.0,0.0,0.0,0.0,0.0,0.0,0.0,0.0,0.0,0.0,0.0,0.0,0.0,0.0,0.0,0.0,0.0,0.0,0.0,0.0,0.0,0.0,4.9375,4.9805,5.0234,5.0312,5.0469,0.0,0.0,0.0,0.0,0.0,0.0,0.0,0.0,0.0,5.1406,5.1406,5.1406,5.1406,5.1875,5.2148,5.2148,5.2551,5.2796,5.2863,5.2791,5.2812,5.2851,5.2851,5.2851,5.2773,5.1797,5.1406,5.1445,0.0,0.0,0.0,0.0,0.0,5.2851,5.2851,0.0,0.0,0.0,0.0,0.0,0.0,0.0,0.0,0.0,0.0,0.0,0.0,0.0,0.0,5.793,5.8359,5.8633,5.8633,5.8984,5.918,0.0,5.9297,6.0,6.0351,0.0,0.0,0.0,0.0,0.0,6.2422,6.2851,6.332,6.3672,6.3711,6.3906,6.4258,6.4297,6.4297,6.4297,6.3945,6.3711,6.3711,6.3359,6.293,0.0,0.0,0.0,0.0,0.0,0.0,0.0,0.0,0.0,0.0,0.0,0.0,0.0,0.0,0.0,0.0,0.0,0.0,0.0,0.0,0.0,0.0,0.0,0.0,0.0,0.0,0.0,0.0,5.0391,5.0742,5.1328,5.1406,5.1406,0.0,0.0,0.0,0.0,0.0,0.0,5.1406,5.1367,5.1484,5.1719,5.1719,5.1836,5.207,5.2695,5.3002,5.2986,5.3838,5.4251,5.4237,5.4414,5.4509,5.4554,5.4608,5.4609,5.4492,5.2773,5.207,5.2148,5.2773,5.3047,5.3125,5.375,5.3984,5.3984,5.3984,5.4141,5.4336,5.4336,0.0,5.4687,5.4687,0.0,0.0,0.0,0.0,5.7422,5.8047,0.0,5.8398,5.9062,5.9375,5.9492,5.9492,6.0156,6.0508,0.0,6.0156,6.0742,6.0742,0.0,0.0,0.0,0.0,6.332,6.332,6.3906,6.4375,6.4609,6.4648,6.4726,6.4961,6.4961,6.4961,6.4961,6.4765,6.4648,6.4648,6.4414,6.3984,6.3359,0.0,0.0,0.0,0.0,0.0,0.0,0.0,0.0,0.0,0.0,0.0,0.0,0.0,0.0,0.0,0.0,0.0,0.0,0.0,0.0,0.0,0.0,0.0,0.0,0.0,0.0,0.0,0.0,0.0,5.1406,5.1406,0.0,0.0,0.0,0.0,5.1406,5.1292,5.1257,5.1405,5.1289,5.1641,5.2617,5.2617,5.3047,5.3867,5.3906,5.3852,5.3743,5.4502,5.4863,5.4866,5.5488,5.5864,5.5997,5.6192,5.6289,5.6133,5.4531,5.3867,5.3867,5.3906,5.3945,5.3945,5.3984,5.3984,5.3984,5.3984,5.4531,5.5234,5.5234,5.5781,5.6484,5.6484,5.707,0.0,0.0,5.8437,5.9062,5.9101,5.914,5.914,5.918,5.9765,6.0351,6.0351,6.1015,6.1367,0.0,6.1055,6.164,6.164,0.0,6.293,6.293,6.3672,6.4219,6.4219,6.4258,6.4609,6.5469,6.5547,6.5859,6.6719,6.6758,6.6758,6.6758,6.5976,6.5547,6.5547,6.4726,6.4297,6.4258,6.4219,0.0,0.0,0.0,0.0,0.0,0.0,0.0,0.0,0.0,0.0,0.0,0.0,0.0,0.0,0.0,0.0,0.0,0.0,0.0,0.0,0.0,0.0,0.0,0.0,0.0,0.0,0.0,0.0,5.1406,5.1406,0.0,0.0,5.1328,5.1317,5.1405,5.18,5.2122,5.2239,5.2733,5.3127,5.3391,5.397,5.4336,5.4578,5.5631,5.6173,5.6126,5.694,5.7352,5.7333,5.7602,5.7718,5.7776,5.7838,5.7896,5.7821,5.7276,5.6484,5.5742,5.6289,5.6523,5.6562,5.7148,5.7344,5.7344,5.7344,5.7539,5.7812,5.7812,5.8008,5.8281,5.8281,5.8476,5.875,5.875,5.8945,5.9336,5.9844,5.9961,6.0273,6.1367,6.1875,6.2226,6.2773,6.3164,6.3281,6.2969,6.2695,6.2695,6.3281,6.3633,6.3828,6.3828,6.457,6.5156,6.5156,6.5625,6.6094,6.6406,6.6445,6.6562,6.6875,6.6914,6.6914,6.6914,6.6601,6.6445,6.6445,6.6133,6.5703,6.5156,6.5156,6.4844,0.0,0.0,0.0,0.0,0.0,0.0,0.0,0.0,0.0,0.0,0.0,0.0,0.0,0.0,0.0,0.0,0.0,0.0,0.0,0.0,0.0,0.0,0.0,0.0,0.0,0.0,5.1361,5.133,5.1317,5.1318,5.1328,5.1515,5.1703,5.1817,5.2494,5.2948,5.3051,5.3807,5.4333,5.4589,5.5434,5.5959,5.6172,5.7288,5.7808,5.7769,5.8623,5.9181,5.9427,5.9696,6.0003,6.0272,6.0334,6.0362,6.0344,6.0422,5.9866,5.8991,5.8392,5.8194,5.832,5.8906,5.914,5.9219,5.9219,5.9219,5.9219,5.9219,5.9219,5.9219,5.9219,5.9609,6.0039,6.0039,6.0469,6.1055,6.1562,6.1719,6.1992,6.3164,6.3437,6.3594,6.418,6.4297,6.4375,6.4687,6.4023,6.3633,6.4219,6.4531,6.4726,6.4726,6.5469,6.6055,6.6055,6.6523,6.6914,6.6914,6.6914,6.6914,6.6914,6.6914,6.6914,6.6914,6.6914,6.6914,6.6914,6.6914,6.664,6.6055,6.6055,6.5625,6.4726,0.0,0.0,0.0,0.0,0.0,0.0,0.0,0.0,0.0,0.0,0.0,0.0,0.0,0.0,0.0,0.0,0.0,0.0,0.0,0.0,0.0,0.0,0.0,5.1406,5.1406,5.1352,5.1215,5.1203,5.1252,5.1242,5.203,5.259,5.2779,5.3325,5.3726,5.3913,5.4469,5.5215,5.6173,5.7004,5.7889,5.875,5.8788,5.8735,5.8642,5.945,6.0181,6.0896,6.1743,6.2551,6.332,6.3498,6.3575,6.3575,6.3729,6.3782,6.3469,6.0142,5.8921,5.9061,5.9062,5.9179,5.9336,5.9375,5.9375,5.9375,5.9375,5.9375,5.9375,5.9375,6.0508,6.1797,6.1797,6.3008,6.4297,6.4297,6.4297,6.4297,6.4336,6.4336,6.4336,6.4375,6.4375,6.4648,6.5469,6.4961,6.4375,6.4375,6.5078,6.5625,6.5625,6.6367,0.0,6.6953,6.6953,6.6953,6.6992,6.6992,6.6992,6.6952,6.6992,6.6953,6.6914,6.6953,6.6914,6.6914,6.6914,6.6914,6.6914,6.6914,6.6484,6.5625,0.0,0.0,0.0,0.0,0.0,0.0,0.0,0.0,0.0,0.0,0.0,0.0,0.0,0.0,0.0,0.0,0.0,0.0,0.0,0.0,0.0,0.0,5.1406,5.1406,5.1312,5.1268,5.133,5.1746,5.205,5.2121,5.2748,5.349,5.4231,5.4879,5.5614,5.6374,5.7174,5.7659,5.7853,5.8633,5.945,6.0219,6.0834,6.1435,6.1973,6.218,6.2435,6.2627,6.2858,6.3089,6.332,6.3358,6.3358,6.3397,6.3435,6.3435,6.3383,6.2673,6.2394,6.2444,6.2441,6.2569,6.2773,6.2851,6.289,6.289,6.289,6.289,6.289,6.289,6.3203,6.3594,6.3594,6.3945,6.4297,6.4297,6.4297,6.4453,6.5078,6.5234,6.543,6.6055,6.6172,6.625,6.6484,6.6367,6.6172,6.6172,6.6367,6.6523,6.6523,0.0,0.0,6.7773,6.7851,6.8086,6.8633,6.8711,6.8669,6.8568,6.8663,6.8398,0.0,6.7773,6.7578,6.6914,6.6914,6.6914,6.6914,6.6914,6.6797,0.0,0.0,0.0,0.0,0.0,0.0,0.0,0.0,0.0,0.0,0.0,0.0,0.0,0.0,0.0,0.0,0.0,0.0,0.0,0.0,0.0,0.0,5.1719,5.1945,5.192,5.1872,5.1813,5.1771,5.2395,5.3008,5.3469,5.4105,5.4843,5.5852,5.6592,5.7255,5.7857,5.8627,5.9165,5.9473,6.0281,6.1089,6.1858,6.2358,6.2858,6.332,6.332,6.3512,6.3858,6.3858,6.4051,0.0,6.4397,6.4397,6.4397,6.4397,6.4397,0.0,0.0,0.0,0.0,0.0,6.4081,6.418,6.4258,6.4297,6.4297,6.4297,6.4297,6.4297,6.4297,6.4531,6.4844,6.4844,6.5117,6.539,6.539,6.539,6.5508,6.6015,6.6133,6.6367,6.7265,6.7422,6.7539,6.789,0.0,0.0,6.7891,6.7615,6.7529,6.7803,6.7848,6.8008,0.0,6.8502,6.8658,6.9132,6.921,6.9138,6.9069,6.9142,0.0,0.0,0.0,6.8281,6.7461,6.7422,0.0,0.0,0.0,6.6914,0.0,0.0,0.0,0.0,6.5156,6.5117,0.0,0.0,0.0,0.0,0.0,0.0,0.0,0.0,0.0,0.0,0.0,0.0,0.0,0.0,0.0,0.0,5.2187,5.2737,5.2807,5.2991,5.2994,5.2645,5.3359,5.4206,5.507,5.578,5.6588,5.7566,5.8335,5.8796,5.8873,0.0,0.0,0.0,0.0,6.2627,6.3435,6.3474,6.3512,6.3589,6.3589,6.4012,6.4743,6.4743,6.5166,6.5897,6.5897,6.5897,6.5897,6.5897,6.5897,6.5782,6.4383,6.3921,6.4051,6.4383,6.4542,0.0,0.0,0.0,0.0,6.4609,6.4609,6.4609,6.4609,6.5117,6.5742,6.5742,6.6367,6.7031,6.7031,6.7109,6.7187,6.7187,6.7187,6.7382,6.8154,6.8307,6.8502,6.9214,6.9371,6.9426,6.9324,6.8761,6.8531,6.9085,6.9167,0.0,6.9056,6.9065,6.9104,6.922,0.0,0.0,6.922,6.9231,6.9177,6.9034,6.9132,6.8945,6.8359,6.832,6.7969,6.7187,6.7187,6.7148,6.7031,6.7031,6.6992,6.6914,6.6914,6.6914,0.0,0.0,0.0,0.0,0.0,0.0,0.0,0.0,0.0,0.0,0.0,0.0,0.0,0.0,0.0,5.2344,5.2578,5.2872,5.3347,5.4746,5.5403,5.4633,5.5088,5.5807,5.6665,5.7412,5.8204,5.905,5.9896,6.0666,6.1358,6.2127,0.0,6.282,6.2974,6.3474,6.4359,6.4359,6.4705,6.5397,0.0,0.0,6.5628,6.5628,6.5743,6.5897,6.5897,6.5897,6.5897,6.5897,6.5936,6.6013,6.559,6.5474,6.5524,6.5682,6.5848,6.6,6.6123,6.625,6.6406,6.6406,6.6406,6.6406,6.6406,6.6523,0.0,6.664,6.7265,6.7969,6.7969,6.8476,6.8984,6.8984,6.8945,6.8922,6.8994,6.9005,6.9014,6.8981,6.8989,6.9227,6.9904,6.9459,6.8991,6.8985,6.8961,6.9206,6.9861,6.9962,7.0271,7.1067,7.1067,7.1029,7.1144,7.1171,7.0798,6.9976,6.9479,6.914,6.9023,6.9101,6.9101,6.8906,6.8906,6.8594,6.7969,6.7969,6.7578,6.6914,6.6914,6.6914,0.0,0.0,0.0,0.0,0.0,0.0,0.0,0.0,0.0,0.0,0.0,5.1523,0.0,0.0,5.2344,5.3203,5.4014,5.4673,5.4946,5.6462,5.7049,5.5673,5.6502,5.7545,5.8373,5.9104,5.9896,6.0742,6.1589,6.2243,6.2666,6.3089,6.3512,6.3935,6.3935,6.4359,6.5243,6.5243,6.5474,6.5897,6.5897,6.609,6.6513,6.6513,6.6744,6.7167,6.7167,6.7167,6.7167,6.7167,6.7205,6.7244,6.7167,6.6744,6.6192,6.6676,6.69,6.7056,6.7589,6.7819,6.791,6.8004,6.8047,6.8086,6.8164,6.8203,6.8203,6.8203,6.8476,6.8783,6.8717,6.902,6.9331,6.9202,6.9185,6.9245,6.9594,6.9717,6.9913,7.0651,7.0793,7.1063,7.1936,7.1839,7.1428,7.0789,7.0695,7.0986,7.1755,7.1832,7.2052,7.2552,7.2514,7.2514,7.2591,7.2696,7.258,7.2118,7.1474,7.0901,7.0459,7.0197,6.9805,6.9297,6.9375,6.9219,6.8789,6.8789,6.8594,6.8164,6.8203,6.7734,0.0,0.0,0.0,0.0,0.0,0.0,0.0,0.0,5.1367,5.1367,5.1523,5.1875,5.2578,5.2851,5.3281,5.4336,5.5579,5.6491,5.6821,5.8043,5.8389,5.6991,5.7988,5.9104,6.0065,6.0704,6.1396,6.2281,6.3089,6.3551,6.3551,6.3705,6.4128,6.482,6.4859,6.5205,6.5897,6.6051,6.6128,6.6128,6.6282,6.6744,6.7359,6.7359,6.7744,6.8398,6.8398,6.8398,6.8398,6.8398,6.8398,6.8398,6.8398,6.7744,6.6859,6.7525,6.7756,6.7872,6.8607,6.8846,6.8948,6.9092,6.9156,6.9169,6.9325,6.9364,6.9364,6.9364,6.9481,6.9517,6.9417,6.9528,6.9656,6.9652,6.9623,6.9856,7.0688,7.086,7.1255,7.2601,7.287,7.3063,7.3783,7.3899,7.363,7.286,7.2745,7.2937,7.3437,7.3514,7.3514,7.3553,7.3514,7.3514,7.3553,7.3668,7.3812,7.3917,7.3472,7.2867,7.2172,7.1692,7.1073,7.0273,7.0195,7.0078,6.9883,6.9726,6.957,6.9414,6.9453,6.875,5.0914,5.1029,5.1085,5.1099,5.1102,5.1131,0.0,0.0,5.1211,5.1211,5.1914,5.2578,5.2695,5.332,5.4375,5.6055,5.6356,5.6898,5.825,5.9081,5.9742,6.0195,5.9858,6.0142,6.1666,6.1897,6.2281,6.3089,6.3974,6.4436,6.4436,6.5205,6.5628,6.5743,6.5743,6.5782,6.5897,6.659,6.6974,6.6974,6.7744,6.8167,6.8244,6.8244,6.8321,6.8398,6.8398,6.8398,6.8398,6.8398,6.8398,6.8398,6.8398,6.8321,6.8205,6.8282,6.8371,6.8513,6.8591,6.8745,6.8899,6.8935,6.8917,6.8954,6.8954,6.8954,6.8954,6.8954,6.9499,7.011,7.0105,7.0655,7.1426,7.2134,7.2288,7.2442,7.3135,7.3311,7.3332,7.3399,7.3437,7.3437,7.3553,7.3553,7.3591,7.3658,7.363,7.363,7.3514,7.3514,7.3553,7.364,7.3591,7.3553,7.364,7.3678,7.3745,7.3745,7.3839,7.3853,7.3737,7.4031,7.4101,7.3984,7.3242,7.2461,7.1719,7.0937,7.0195,6.9492,6.9492,6.9414,5.0779,5.0837,0.0,0.0,5.1099,5.1115,5.1231,5.167,5.2056,5.2066,5.2812,5.3594,5.4101,5.4922,5.5882,0.0,5.794,5.8663,5.9204,6.0334,6.1204,6.1512,6.1704,6.2089,6.2743,6.3243,6.3705,6.4051,6.4859,6.5359,6.5359,6.5705,6.5897,6.5897,6.6359,6.659,6.659,6.7436,6.7859,6.7859,6.8244,6.8667,6.9167,6.9167,6.9398,6.986,6.986,6.986,6.986,6.986,7.0167,7.0591,7.0591,7.0937,7.1206,6.9706,6.9206,6.9321,6.9783,6.9986,7.0063,7.0179,7.0232,7.0363,7.0921,7.1115,7.1231,7.1733,7.2142,7.2375,7.2275,7.2533,7.286,7.3245,7.3245,7.3255,7.364,7.3668,7.3707,7.413,7.4207,7.4399,7.5014,7.513,7.5168,7.5236,7.4707,7.4476,7.4899,7.4938,7.4976,7.5053,7.4976,7.4976,7.5053,7.5168,7.5207,7.5207,7.5015,7.4873,7.4779,7.467,7.4535,7.4421,7.4179,7.3867,7.3515,7.3164,7.2812,7.2461,7.2461,7.2461,5.0741,0.0,0.0,5.1029,5.1296,5.146,5.1614,5.2355,5.3,5.3019,5.3932,5.4918,5.5488,5.6485,5.7459,5.8162,5.9198,6.0046,6.0365,6.1396,6.2243,6.2743,6.332,6.3743,6.4012,6.4359,6.4705,6.4936,6.5551,6.5897,6.5897,6.609,6.6244,6.6244,6.7013,6.7475,6.7475,6.8321,6.8783,6.8783,6.8975,6.9436,7.0052,7.0283,7.0821,7.1629,7.1629,7.1629,7.1629,7.1629,7.1975,7.2552,7.2552,7.2937,7.3283,7.1437,7.0744,7.0821,7.1398,7.1629,7.1629,7.1783,7.1822,7.1975,7.2678,7.2909,7.3024,7.3668,7.386,7.3822,7.3707,7.364,7.3707,7.4004,7.3937,7.3937,7.4322,7.4284,7.4361,7.4938,7.5053,7.5399,7.6399,7.6553,7.663,7.6861,7.6245,7.5899,7.6322,7.6553,7.6669,7.6669,7.6669,7.6669,7.6669,7.6823,7.6784,7.6592,7.6322,7.5985,7.5581,7.5312,7.5122,7.5023,7.4935,7.4883,7.4961,7.4726,7.4609,7.4609,7.4609,7.4609,0.0,0.0,5.0952,5.1068,5.1663,5.2251,5.2251,5.3034,5.3764,5.3764,5.5247,5.6484,5.6387,5.7697,5.9068,5.9815,5.9803,6.0319,6.1973,6.2166,6.2704,6.432,6.4551,6.4897,0.0,6.5089,6.4936,6.5782,6.5897,6.5897,6.5897,6.6628,6.7051,6.7051,6.7898,6.8359,6.8359,6.9244,6.9667,6.9667,7.0437,7.0821,7.0898,7.1745,7.2591,7.3437,7.3437,7.3437,7.3437,7.3437,7.3437,7.3476,7.3476,7.3476,7.3514,7.3399,7.3399,7.3399,7.3399,7.3437,7.3437,7.3437,7.3437,7.3437,7.3476,7.3476,7.3476,7.3514,7.3514,7.3514,7.3514,7.3514,7.3707,7.4476,7.4668,7.4899,7.5745,7.5938,7.5938,7.5976,7.5976,7.6245,7.713,7.7246,7.7515,7.8323,7.84,7.8092,7.7361,7.7938,7.84,7.84,7.84,7.84,7.84,7.8438,7.8092,7.7323,7.7429,7.7151,7.6283,7.6443,7.6625,7.6834,7.6015,7.5664,7.5859,7.5,7.4609,7.4609,7.4609,7.4609,0.0,0.0,5.1856,5.2574,5.301,5.3325,5.342,5.4133,5.4957,5.5542,5.6624,5.7577,5.8006,5.9004,5.9788,5.9823,6.0702,6.1627,6.2089,6.3089,6.3974,6.4551,6.5128,0.0,0.0,0.0,0.0,6.5859,6.6397,6.6705,6.6705,6.7513,6.7975,6.7975,6.8821,6.9244,6.9244,7.009,7.0783,7.136,7.2206,7.2629,7.2629,7.2937,7.3206,7.3514,7.3514,7.3514,7.3514,7.3514,7.3822,7.4322,7.4322,7.4668,7.5168,7.5168,7.5168,7.5014,7.3899,7.3514,7.3514,7.3514,7.3514,7.3591,7.413,7.4322,7.4437,7.5014,7.5168,7.5168,7.5168,7.5168,7.5245,7.5668,7.5668,7.5822,7.6823,7.6976,7.7015,7.7553,7.7669,7.7746,7.8054,7.8092,7.8361,7.9246,7.8861,7.84,7.813,7.8323,7.8477,7.8477,7.8477,7.8477,7.8477,7.8477,7.8361,7.8092,7.8276,7.8248,7.7961,7.8155,7.8301,7.8379,7.8079,7.7745,7.7344,7.707,7.6719,7.6328,7.6328,7.6328,0.0,5.3051,5.2815,5.3563,5.4042,5.4363,5.4447,5.539,5.6406,5.6953,5.8008,5.8918,5.9232,6.0008,6.0589,6.0565,6.1512,6.2397,6.2897,6.3935,6.4705,6.5013,6.5551,0.0,0.0,0.0,0.0,6.632,6.6821,6.7244,6.7552,6.8398,6.8859,6.8859,6.9706,7.0283,7.0591,7.1091,7.1783,7.2668,7.3245,7.3668,7.3937,7.3937,7.4091,7.4399,7.4399,7.4399,7.4399,7.4399,7.4707,7.5168,7.5168,7.5515,7.6015,7.6015,7.6015,7.5861,7.4784,7.4399,7.4399,7.4399,7.4399,7.4476,7.5014,7.5168,7.5284,7.5822,7.6015,7.6053,7.6361,7.6476,7.6553,7.6976,7.6976,7.7092,7.7784,7.7823,7.7861,7.84,7.8477,7.8592,7.89,7.9208,7.9631,8.0169,7.9785,7.9438,7.9438,7.9438,7.9438,7.9438,7.9438,7.9438,7.9438,7.9438,7.9285,7.8977,7.9092,7.9045,7.8699,7.8815,7.893,7.8977,7.8989,7.8841,7.8542,7.8575,7.8398,7.8086,7.8086,7.8086,5.3629,5.3686,5.3735,5.4033,5.4765,5.543,5.543,5.6758,5.7969,5.8008,5.9296,6.0331,0.0,0.0,6.1458,6.2012,6.2127,6.2743,6.4359,6.4628,6.4974,0.0,0.0,0.0,0.0,0.0,0.0,6.7205,0.0,6.759,6.8436,6.9283,6.9783,6.9821,7.0552,7.1398,7.2245,7.2322,7.2745,7.3553,7.363,7.4053,7.4784,7.4784,7.5207,7.6015,7.6015,7.6015,7.6015,7.6015,7.6015,7.6053,7.6053,7.6092,7.613,7.613,7.613,7.613,7.613,7.6053,7.6015,7.6053,7.6053,7.6053,7.613,7.613,7.613,7.613,7.613,7.6322,7.713,7.7361,7.7553,7.8323,7.8477,7.8515,7.8554,7.8554,7.8592,7.8631,7.8631,7.89,7.9708,8.0554,8.1093,8.1093,8.1093,8.1093,8.1093,8.1093,8.1093,8.1093,8.1093,8.1093,8.1093,8.1093,8.0746,7.9939,7.9862,7.9515,7.8669,7.8631,7.8707,7.8908,7.8908,7.91,7.9415,7.945,7.953,7.9687,7.9687,7.9687,5.4916,5.488,5.4604,5.5424,5.6376,5.7109,5.7226,5.8086,5.9023,5.9648,6.001,6.0406,0.0,0.0,0.0,6.1973,6.2589,0.0,6.4436,6.5166,0.0,0.0,0.0,6.6128,6.6744,6.6974,0.0,0.0,6.9052,6.9129,6.936,7.0167,7.0898,7.1552,7.1745,7.2283,7.3168,7.3745,7.4168,7.4399,7.5053,7.5476,7.5668,7.5668,7.5784,7.6015,7.6015,7.6015,7.6015,7.6015,7.6361,7.6976,7.6976,7.7323,7.7861,7.7861,7.7861,7.7861,7.7861,7.7053,7.6092,7.6746,7.6976,7.7092,7.7669,7.7861,7.7861,7.7861,7.7861,7.79,7.813,7.8169,7.8246,7.8438,7.8477,7.8669,7.9323,7.9477,7.9669,8.0323,8.0439,8.0516,8.0746,8.0939,8.1093,8.1093,8.1093,8.1093,8.1093,8.1093,8.1093,8.1093,8.1093,8.1093,8.1093,8.1093,8.1016,8.0785,8.0785,8.0669,8.0439,8.0439,8.0477,8.0516,8.0516,8.0323,7.9908,7.9911,7.9783,7.9492,7.9492,7.957,5.5724,5.5712,5.5603,5.6691,5.7354,5.789,5.8359,5.9101,5.9837,6.0213,6.0549,0.0,0.0,0.0,0.0,0.0,0.0,0.0,6.5051,6.559,6.5897,0.0,6.6205,0.0,6.7051,6.7782,6.8667,0.0,6.9706,6.986,7.0206,7.1014,7.1668,7.2168,7.2552,7.3168,7.4014,7.4861,7.5284,7.5284,7.5784,7.6015,7.6015,7.6015,7.6207,7.6553,0.0,7.6784,7.7092,7.7092,7.74,7.7823,7.7823,7.8092,7.8477,7.8477,7.8477,7.8477,7.8477,7.7861,7.7169,7.7669,7.7823,7.79,7.8361,7.8477,7.8477,7.8477,7.8477,7.8592,7.8977,7.9054,7.9169,7.9554,7.9631,7.9785,8.0246,8.0362,8.0516,8.1016,8.1093,8.1093,8.1093,8.1093,8.1093,8.1093,8.14,8.1631,8.1631,8.1323,8.1093,8.1093,8.1093,8.1093,8.1093,8.1093,8.1093,8.1093,8.1093,8.1093,8.1093,8.1093,8.1093,8.1093,8.1093,8.0977,8.0669,8.069,8.0588,8.0429,8.0406,8.0523,5.6109,5.6267,5.6598,5.7636,5.8064,5.8428,5.9179,6.0,6.0514,6.0403,0.0,6.1381,6.105,0.0,6.2512,6.3205,0.0,6.4897,6.5782,6.5897,6.5897,6.5897,6.659,6.7128,6.7244,6.8744,6.9744,6.986,6.9975,7.0321,7.1052,7.1783,7.2283,7.2514,7.3399,7.4168,7.4861,7.563,7.6015,7.6015,7.6015,7.6053,7.6169,7.6169,7.663,7.7438,0.0,0.0,7.8477,7.8477,7.8554,7.8669,7.8669,7.8746,7.8861,7.8861,7.8861,7.8861,7.8861,7.8861,7.8823,7.8707,7.8669,7.8669,7.8784,7.8861,7.8861,7.8861,7.8861,7.9015,7.9785,7.9977,8.0169,8.0939,8.1093,8.1093,8.1093,8.1093,8.1093,8.1093,8.1093,8.1131,8.1246,8.1246,8.1285,8.14,8.2016,8.2477,8.2477,8.1862,8.1439,8.1439,8.1439,8.1439,8.1439,8.1439,8.1439,8.1439,8.1439,8.1439,8.1439,8.1439,8.1362,8.1246,8.1246,8.1285,8.1362,8.1362,8.1439,8.1662,8.1652,8.178,5.6148,5.6687,5.7261,5.7641,5.8781,5.9862,6.0145,6.0859,0.0,0.0,0.0,6.1266,6.1012,6.1627,0.0,6.3166,0.0,0.0,0.0,0.0,6.5897,0.0,0.0,0.0,0.0,0.0,0.0,0.0,0.0,0.0,7.1975,7.2129,7.2822,7.4207,7.513,7.563,7.5784,7.5938,7.6015,7.6015,7.6015,7.6361,7.7053,7.7053,7.7515,7.8284,0.0,0.0,7.8477,7.8477,7.89,7.9592,7.9592,8.0015,8.0631,8.0631,8.0631,8.0631,8.0631,8.0631,8.0516,7.9823,7.9592,7.9708,8.0439,8.0631,8.0631,8.0631,8.0631,8.0669,8.0823,8.0862,8.09,8.1054,8.1093,8.1093,8.1093,8.1093,8.1093,8.1093,8.1093,8.1323,8.1977,8.2093,8.2324,8.3054,8.3285,8.3362,8.3362,8.3247,8.317,8.317,8.317,8.317,8.317,8.317,8.317,8.317,8.317,8.317,8.317,8.317,8.2824,8.2093,8.2093,8.1785,8.1131,8.1131,8.1246,8.1439,8.1436,8.1578,5.6225,5.6927,5.7707,5.8332,5.9387,6.0426,6.0973,0.0,0.0,0.0,0.0,6.1228,6.0935,0.0,0.0,0.0,0.0,0.0,0.0,0.0,0.0,0.0,0.0,0.0,0.0,0.0,0.0,0.0,0.0,0.0,7.2206,7.3014,7.4091,7.5361,7.5784,7.6015,7.6015,7.6015,7.6245,7.6669,7.6669,7.7092,7.79,7.79,7.8361,7.9169,7.9169,0.0,7.9862,7.9862,8.0092,8.0477,8.0477,8.0746,8.1093,8.1093,8.1093,8.1093,8.1093,8.1093,8.1016,8.0592,8.0477,8.0554,8.0977,8.1093,8.1093,8.1093,8.1093,8.1093,8.1093,8.1093,8.1093,8.1093,8.1093,8.1093,8.1093,8.1093,8.1208,8.1631,8.1708,8.1977,8.2824,8.2978,8.3131,8.3516,8.3978,8.4286,8.4286,8.4632,8.4555,8.367,8.3593,8.3593,8.3593,8.3593,8.3593,8.3593,8.3593,8.3593,8.3593,8.3593,8.3401,8.2978,8.2978,8.2785,8.2401,8.2401,8.2439,8.2516,8.2516,8.2631,5.6381,5.7224,5.8192,5.9009,5.9961,6.0859,6.1523,6.1719,0.0,0.0,6.1289,6.1189,6.0858,0.0,0.0,0.0,0.0,0.0,0.0,0.0,0.0,0.0,0.0,0.0,0.0,0.0,0.0,0.0,0.0,0.0,7.2745,7.4168,7.5284,7.5976,7.6015,7.6092,7.6284,7.6284,7.6707,7.7553,7.7553,7.7977,7.8784,7.8784,7.9246,8.0092,8.0092,0.0,0.0,8.1093,8.1093,8.1093,8.1093,8.1093,8.1093,8.1093,8.1093,8.1093,8.1093,8.1093,8.1093,8.1093,8.1093,8.1093,8.1093,8.1093,8.1093,8.1093,8.1093,8.1093,8.1093,8.1093,8.1093,8.1093,8.1246,8.1362,8.1362,8.1516,8.1823,8.2439,8.2593,8.2862,8.3708,8.3862,8.3939,8.4093,8.4709,8.517,8.517,8.5709,8.5593,8.4286,8.4132,8.4132,8.4132,8.4132,8.4132,8.4132,8.4132,8.4132,8.4132,8.4132,8.4055,8.3862,8.3862,8.3785,8.3593,8.3593,8.3593,8.3593,8.3593,8.367,5.6548,5.7806,5.9096,5.9179,6.039,6.1601,6.168,0.0,0.0,6.1344,6.1289,6.1189,6.0858,0.0,0.0,0.0,0.0,0.0,0.0,0.0,0.0,0.0,0.0,0.0,0.0,0.0,0.0,0.0,0.0,0.0,0.0,7.5361,7.5938,7.6015,7.6015,7.6361,7.7169,7.7169,7.7592,7.84,7.84,7.8823,7.9669,7.9669,8.0169,8.0977,0.0,0.0,0.0,8.1093,8.1093,8.1093,8.1093,8.1093,8.1093,8.1093,8.1093,8.1093,8.1093,8.1093,8.1093,8.1093,8.1093,8.1093,8.1093,8.1093,8.1093,8.1093,8.1093,8.1093,8.1093,8.1093,8.1093,8.1093,8.167,8.217,8.217,8.2824,8.3401,8.3478,8.3478,8.3747,8.4632,8.4786,8.5016,8.5747,8.594,8.5978,8.5978,8.6055,8.6055,8.5901,8.5863,8.5863,8.5863,8.5863,8.5863,8.5863,8.5863,8.5863,8.5863,8.5863,8.5517,8.4786,8.4786,8.4401,8.3593,8.3593,8.3593,8.3593,8.3593,8.3593,5.6575,5.75,5.8555,5.9062,6.0078,6.1045,6.1472,0.0,0.0,6.1197,6.1229,6.1189,6.0858,0.0,0.0,0.0,0.0,0.0,0.0,0.0,0.0,0.0,0.0,0.0,0.0,0.0,0.0,0.0,0.0,0.0,0.0,7.5822,7.6015,7.6015,7.6515,7.6938,7.7284,7.7784,7.8438,7.9285,7.9285,7.9746,8.0592,8.0592,8.0785,8.1093,0.0,0.0,0.0,8.1093,8.1093,8.1093,8.1093,8.1093,8.1093,8.1093,8.1093,8.1093,8.1093,8.1093,8.1093,8.1093,8.1093,8.1093,8.1093,8.1093,8.1093,8.1093,8.1093,8.1093,8.1093,8.1477,8.1939,8.2477,8.2862,8.3093,8.3093,8.3362,8.3747,8.4286,8.4362,8.4632,8.5478,8.5632,8.5747,8.6055,8.6094,8.6094,8.6094,8.6094,8.6094,8.6094,8.6094,8.6094,8.6094,8.6094,8.6094,8.6094,8.6094,8.6094,8.6094,8.6094,8.594,8.5632,8.5632,8.544,8.5093,8.5093,8.5093,8.5093,8.5093,8.5093,5.6588,5.7226,5.8125,5.8984,5.9805,6.061,0.0,0.0,0.0,6.1155,6.1186,6.1189,6.0858,6.2166,0.0,0.0,0.0,6.5897,0.0,0.0,0.0,0.0,0.0,0.0,0.0,0.0,0.0,0.0,0.0,0.0,0.0,7.6015,7.613,7.6361,7.6976,7.7553,7.8015,7.8592,7.9323,8.0169,8.0169,8.0516,8.1093,8.1093,8.1093,8.1093,0.0,0.0,0.0,8.1093,8.1093,8.1093,8.1093,8.1093,8.1093,8.1093,8.1093,8.1093,8.1093,8.1093,8.1093,8.1093,8.1093,8.1093,8.1093,8.1093,8.1093,8.1093,8.1285,8.1516,8.1785,8.2247,8.2824,8.3439,8.3785,8.3978,8.3978,8.417,8.4516,8.5132,8.5247,8.544,8.6017,8.6094,8.6094,8.6094,8.6094,8.6094,8.6094,8.6094,8.6094,8.6094,8.6094,8.6094,8.6094,8.6094,8.6094,8.6094,8.6094,8.6094,8.6094,8.6094,8.6094,8.6094,8.6094,8.6094,8.6094,8.6094,8.6094,8.6094,8.6094,8.6094,5.6601,5.7226,5.8125,5.8984,5.9805,6.0625,0.0,0.0,0.0,6.133,6.1289,6.1189,6.0858,6.2166,6.332,6.332,0.0,0.0,0.0,0.0,0.0,0.0,0.0,0.0,0.0,0.0,0.0,0.0,0.0,0.0,0.0,7.6015,7.6399,7.7246,7.7284,7.8092,7.9746,7.9785,8.0208,8.1093,8.1093,8.1093,8.1093,8.1093,8.1093,0.0,0.0,0.0,0.0,8.1093,8.1093,8.1093,8.1093,8.1093,8.1093,8.1093,8.1093,8.1093,8.1093,8.1093,8.1093,8.1093,8.1093,8.1093,8.1093,8.1093,8.1093,8.1093,8.167,8.2477,8.3362,8.3555,8.3593,8.3593,8.4247,8.4901,8.4901,8.5517,8.6094,8.6094,8.6094,8.6094,8.6094,8.6094,8.6094,8.6094,8.6094,8.6094,8.6094,8.6094,8.6094,8.6094,8.6094,8.6094,8.6094,8.6094,8.6094,8.6094,8.6094,8.6094,8.6094,8.6094,8.6094,8.6094,8.6094,8.6094,8.6094,8.6094,8.6094,8.6094,8.6094,8.6094,5.6601,5.7226,5.8125,5.8984,5.9805,6.0586,6.1406,0.0,0.0,0.0,6.1215,6.1189,6.0858,6.2166,6.332,6.332,6.4743,0.0,0.0,0.0,0.0,0.0,0.0,0.0,0.0,0.0,0.0,0.0,0.0,0.0,0.0,7.6553,7.7015,7.7284,7.7823,7.8669,7.9785,8.04,8.0823,8.1093,8.1093,8.1093,8.1093,8.1093,0.0,0.0,0.0,0.0,0.0,8.1093,8.1093,8.1093,8.1093,8.1093,8.1093,8.1093,8.1093,8.1093,8.1093,8.1093,8.1093,8.1093,8.1477,8.19,8.19,8.19,8.2054,8.2631,8.2978,8.3401,8.4247,8.4478,8.4632,8.517,8.5517,8.5709,8.5709,8.594,8.6094,8.6094,8.6094,8.6094,8.6094,8.6094,8.6094,8.6094,8.6094,8.6094,8.6094,8.6094,8.6094,8.6094,8.6094,8.6094,8.6094,8.6094,8.6094,8.6094,8.6094,8.6094,8.6094,8.6094,8.6094,8.6094,8.6094,8.6094,8.6094,8.6094,8.6094,8.6094,8.6094,8.6094,0.0,5.7226,5.8125,5.8984,5.9805,0.0,0.0,0.0,0.0,0.0,0.0,0.0,6.0858,6.2166,6.332,6.332,6.4743,0.0,0.0,0.0,0.0,0.0,0.0,0.0,0.0,0.0,0.0,0.0,0.0,0.0,0.0,0.0,7.7592,7.8207,7.8746,7.94,8.0285,8.0823,8.1093,8.1093,8.1093,8.1093,8.1093,8.1093,0.0,0.0,0.0,0.0,0.0,8.1093,8.1093,8.1093,8.1093,8.1093,8.1093,8.1093,8.1093,8.1093,8.1093,8.1093,8.1131,8.1439,8.2093,8.2862,8.317,8.3054,8.2978,8.3862,8.4093,8.4286,8.5132,8.5363,8.5478,8.5978,8.6094,8.6094,8.6094,8.6094,8.6094,8.6094,8.6094,8.6094,8.6094,8.6094,8.6094,8.6094,8.6094,8.6094,8.6094,8.6094,8.6094,8.6094,8.6094,8.6094,8.6094,8.6094,8.6094,8.6094,8.6094,8.6094,8.6094,8.6094,8.6094,8.6094,8.6094,8.6094,8.6094,8.6094,8.6094,8.6094,8.6094,8.6094,0.0,0.0,0.0,0.0,0.0,0.0,0.0,0.0,0.0,0.0,0.0,0.0,6.0896,6.2204,6.332,6.3397,6.4782,0.0,0.0,0.0,0.0,0.0,0.0,0.0,0.0,0.0,0.0,0.0,0.0,0.0,0.0,0.0,7.813,7.9746,7.9862,8.0285,8.1093,8.1093,8.1093,8.1093,8.1093,8.1093,8.1093,8.1093,0.0,0.0,0.0,0.0,0.0,8.1093,8.1093,8.1093,8.1093,8.1093,8.1093,8.1093,8.1093,8.1093,8.1093,8.1131,8.1323,8.2208,8.3016,8.3862,8.4709,8.4362,8.3862,8.4747,8.4978,8.517,8.5901,8.6094,8.6094,8.6094,8.6094,8.6094,8.6094,8.6094,8.6094,8.6094,8.6094,8.6094,8.6094,8.6094,8.6094,8.6094,8.6094,8.6094,8.6094,8.6094,8.6094,8.6094,8.6094,8.6094,8.6094,8.6094,8.6094,8.6094,8.6094,8.6094,8.6094,8.6094,8.6094,8.6094,8.6094,8.6094,8.6094,8.6094,8.6094,8.6094,8.6094,8.6094,0.0,0.0,0.0,0.0,0.0,0.0,0.0,0.0,0.0,0.0,0.0,0.0,6.1704,6.2627,6.3512,6.4205,6.5205,0.0,0.0,0.0,0.0,0.0,0.0,0.0,0.0,0.0,0.0,0.0,0.0,0.0,0.0,0.0,7.8707,7.9785,8.0439,8.09,8.1093,8.1093,8.1093,8.1093,8.1093,8.1093,8.1093,8.1093,0.0,0.0,0.0,0.0,8.1093,8.1093,8.1093,8.1093,8.1093,8.1093,8.1093,8.1093,8.1093,8.1093,8.1093,8.1516,8.2285,8.3785,8.4439,8.4747,8.5555,8.5247,8.4786,8.5593,8.5824,8.5863,8.6055,8.6094,8.6094,8.6094,8.6094,8.6094,8.6094,8.6094,8.6094,8.6094,8.6094,8.6094,8.6094,8.6094,8.6094,8.6094,8.6094,8.6094,8.6094,8.6094,8.6094,8.6094,8.6094,8.6094,8.6094,8.6094,8.6094,8.6094,8.6094,8.6094,8.6094,8.6094,8.6094,8.6094,8.6094,8.6094,8.6094,8.6094,8.6094,8.6094,8.6094,8.6094,0.0,0.0,0.0,0.0,0.0,0.0,0.0,0.0,0.0,0.0,0.0,0.0,6.2012,0.0,0.0,0.0,0.0,0.0,0.0,0.0,0.0,0.0,0.0,0.0,0.0,0.0,0.0,0.0,0.0,0.0,0.0,0.0,7.9092,8.0362,8.0862,8.1093,8.1093,8.1093,8.1093,8.1093,8.1093,8.1093,8.1093,8.1093,0.0,0.0,0.0,0.0,8.1093,8.1093,8.1093,8.1093,8.1093,8.1093,8.1093,8.1093,8.1093,8.1093,8.1093,8.19,8.3131,8.4478,8.517,8.5517,8.5978,8.5786,8.5555,8.5978,8.6094,8.6094,8.6094,8.6094,8.6094,8.6094,8.6094,8.6094,8.6094,8.6094,8.6094,8.6094,8.6094,8.6094,8.6094,8.6094,8.6094,8.6094,8.6094,8.6094,8.6094,8.6094,8.6094,8.6094,8.6094,8.6094,8.6094,8.6094,8.6094,8.6094,8.6094,8.6094,8.6094,8.6094,8.6094,8.6094,8.6094,8.6094,8.6094,8.6094,8.6094,8.6094,8.6094,8.6094,0.0,0.0,0.0,0.0,0.0,0.0,0.0,0.0,0.0,0.0,0.0,0.0,0.0,0.0,0.0,0.0,0.0,0.0,0.0,0.0,0.0,0.0,0.0,0.0,0.0,0.0,0.0,0.0,0.0,0.0,0.0,0.0,0.0,8.1054,8.1093,8.1093,8.1093,8.1093,8.1093,8.1093,8.1093,8.1093,8.1093,8.1093,0.0,0.0,0.0,0.0,8.1093,8.1093,8.1093,8.1093,8.1093,8.1093,8.1093,8.1093,8.1093,8.1131,8.14,8.2516,8.3939,8.4786,8.5555,8.6094,8.6094,8.6094,8.6094,8.6094,8.6094,8.6094,8.6094,8.6094,8.6094,8.6094,8.6094,8.6094,8.6094,8.6094,8.6094,8.6094,8.6094,8.6094,8.6094,8.6094,8.6094,8.6094,8.6094,8.6094,8.6094,8.6094,8.6094,8.6094,8.6094,8.6094,8.6094,8.6094,8.6094,8.6094,8.6094,8.6094,8.6094,8.6094,8.6094,8.6094,8.6094,8.6094,8.6094,8.6094,8.6094,8.6094,8.6094,8.6094,0.0,0.0,0.0,0.0,0.0,0.0,0.0,0.0,0.0,0.0,0.0,0.0,0.0,0.0,0.0,0.0,0.0,0.0,0.0,0.0,0.0,0.0,0.0,0.0,0.0,0.0,0.0,0.0,0.0,0.0,0.0,0.0,0.0,8.1054,8.1093,8.1093,8.1093,8.1093,8.1093,8.1093,8.1093,8.1093,8.1093,8.1093,8.1093,0.0,0.0,8.1093,8.1093,8.1093,8.1093,8.1093,8.1093,8.1093,8.1093,8.1093,8.1093,8.1285,8.2708,8.3862,8.4824,8.567,8.6017,8.6094,8.6094,8.6094,8.6094,8.6094,8.6094,8.6094,8.6094,8.6094,8.6094,8.6094,8.6094,8.6094,8.6094,8.6094,8.6094,8.6094,8.6094,8.6094,8.6094,8.6094,8.6094,8.6094,8.6094,8.6094,8.6094,8.6094,8.6094,8.6094,8.6094,8.6094,8.6094,8.6094,8.6094,8.6094,8.6094,8.6094,8.6094,8.6094,8.6094,8.6094,8.6094,8.6094,8.6094,8.6094,8.6094,8.6094,8.6094,8.6094,0.0,0.0,0.0,0.0,0.0,0.0,0.0,0.0,0.0,0.0,0.0,0.0,0.0,0.0,0.0,0.0,0.0,0.0,0.0,0.0,0.0,0.0,0.0,0.0,0.0,0.0,0.0,0.0,0.0,0.0,0.0,0.0,0.0,0.0,8.1093,8.1093,8.1093,8.1093,8.1093,8.1093,8.1093,8.1093,8.1093,8.1093,8.1093,8.1093,0.0,8.1093,8.1093,8.1093,8.1093,8.1093,8.1093,8.1093,8.1093,8.1093,8.1362,8.1939,8.317,8.417,8.5016,8.5863,8.6094,8.6094,8.6094,8.6094,8.6094,8.6094,8.6094,8.6094,8.6094,8.6094,8.6094,8.6094,8.6094,8.6094,8.6094,8.6094,8.6094,8.6094,8.6094,8.6094,8.6094,8.6094,8.6094,8.6094,8.6094,8.6094,8.6094,8.6094,8.6094,8.6094,8.6094,8.6094,8.6094,8.6094,8.6094,8.6094,8.6094,8.6094,8.6094,8.6094,8.6094,8.6094,8.6094,8.6094,8.6094,8.6094,8.6094,8.6094,8.6094,8.6094,5.8491,0.0,0.0,0.0,0.0,0.0,0.0,0.0,0.0,0.0,0.0,0.0,0.0,0.0,0.0,0.0,0.0,0.0,0.0,0.0,0.0,0.0,0.0,0.0,0.0,0.0,0.0,0.0,0.0,0.0,0.0,0.0,0.0,0.0,8.1093,8.1093,8.1093,8.1093,8.1093,8.1093,8.1093,8.1093,8.1093,8.1093,8.1093,8.1093,8.1093,8.1093,8.1093,8.1093,8.1093,8.1093,8.1093,8.1093,8.1131,8.1323,8.19,8.2708,8.3593,8.4478,8.5286,8.5901,8.6094,8.6094,8.6094,8.6094,8.6094,8.6094,8.6094,8.6094,8.6094,8.6094,8.6094,8.6094,8.6094,8.6094,8.6094,8.6094,8.6094,8.6094,8.6094,8.6094,8.6094,8.6094,8.6094,8.6094,8.6094,8.6094,8.6094,8.6094,8.6094,8.6094,8.6094,8.6094,8.6094,8.6094,8.6094,8.6094,8.6094,8.6094,8.6094,8.6094,8.6094,8.6094,8.6094,8.6094,8.6094,8.6094,8.6094,8.6094,8.6094,8.6094,5.8491,5.8812,0.0,0.0,0.0,0.0,0.0,0.0,0.0,0.0,0.0,0.0,0.0,0.0,0.0,0.0,0.0,0.0,0.0,0.0,0.0,0.0,0.0,0.0,0.0,0.0,0.0,0.0,0.0,0.0,0.0,0.0,0.0,0.0,0.0,8.1093,8.1093,8.1093,8.1093,8.1093,8.1093,8.1093,8.1093,8.1093,8.1093,8.1093,8.1093,8.1093,8.1093,8.1093,8.1093,8.1093,8.1093,8.1093,8.1208,8.1939,8.2747,8.3632,8.4516,8.5363,8.6017,8.6094,8.6094,8.6094,8.6094,8.6094,8.6094,8.6094,8.6094,8.6094,8.6094,8.6094,8.6094,8.6094,8.6094,8.6094,8.6094,8.6094,8.6094,8.6094,8.6094,8.6094,8.6094,8.6094,8.6094,8.6094,8.6094,8.6094,8.6094,8.6094,8.6094,8.6094,8.6094,8.6094,8.6094,8.6094,8.6094,8.6094,8.6094,8.6094,8.6094,8.6094,8.6094,8.6094,8.6094,8.6094,8.6094,8.6094,8.6094,8.6094,8.6094,8.6094,5.8252,5.8604,0.0,0.0,0.0,0.0,0.0,0.0,0.0,0.0,0.0,0.0,0.0,0.0,0.0,0.0,0.0,0.0,0.0,0.0,0.0,0.0,0.0,0.0,0.0,0.0,0.0,0.0,0.0,0.0,0.0,0.0,0.0,0.0,0.0,8.1093,8.1093,8.1093,8.1093,8.1093,8.1093,8.1093,8.1093,8.1093,8.1093,8.1093,8.1093,8.1093,8.1093,8.1093,8.1093,8.1093,8.1093,8.1093,8.1208,8.2016,8.2862,8.3708,8.4593,8.544,8.6094,8.6094,8.6094,8.6094,8.6094,8.6094,8.6094,8.6094,8.6094,8.6094,8.6094,8.6094,8.6094,8.6094,8.6094,8.6094,8.6094,8.6094,8.6094,8.6094,8.6094,8.6094,8.6094,8.6094,8.6094,8.6094,8.6094,8.6094,8.6094,8.6094,8.6094,8.6094,8.6094,8.6094,8.6094,8.6094,8.6094,8.6094,8.6094,8.6094,8.6094,8.6094,8.6094,8.6094,8.6094,8.6094,8.6094,8.6094,8.6094,8.6094,8.6094,8.6094,5.8204,5.8681,0.0,0.0,0.0,0.0,0.0,0.0,0.0,0.0,0.0,0.0,0.0,0.0,0.0,0.0,0.0,0.0,0.0,0.0,0.0,0.0,0.0,0.0,0.0,0.0,0.0,0.0,0.0,0.0,0.0,0.0,0.0,0.0,0.0,0.0,8.1093,8.1093,8.1093,8.1093,8.1093,8.1093,8.1093,8.1093,8.1093,8.1093,8.1093,8.1093,8.1093,8.1093,8.1093,8.1093,8.1093,8.1093,8.1246,8.2324,8.3093,8.3747,8.4901,8.5632,8.6094,8.6094,8.6094,8.6094,8.6094,8.6094,8.6094,8.6094,8.6094,8.6094,8.6094,8.6094,8.6094,8.6094,8.6094,8.6094,8.6094,8.6094,8.6094,8.6094,8.6094,8.6094,8.6094,8.6094,8.6094,8.6094,8.6094,8.6094,8.6094,8.6094,8.6094,8.6094,8.6094,8.6094,8.6094,8.6094,8.6094,8.6094,8.6094,8.6094,8.6094,8.6094,8.6094,8.6094,8.6094,8.6094,8.6094,8.6094,8.6094,8.6094,8.6094,8.6094,5.8296,0.0,0.0,0.0,0.0,0.0,0.0,0.0,0.0,0.0,0.0,0.0,0.0,0.0,0.0,0.0,0.0,0.0,0.0,0.0,0.0,0.0,0.0,0.0,0.0,0.0,0.0,0.0,0.0,0.0,0.0,0.0,0.0,0.0,0.0,0.0,8.1093,8.1093,8.1093,8.1093,8.1093,8.1093,8.1093,8.1093,8.1093,8.1093,8.1093,8.1093,8.1093,8.1093,8.1093,8.1093,8.1093,8.1093,8.1323,8.2978,8.3593,8.3862,8.5517,8.6094,8.6094,8.6094,8.6094,8.6094,8.6094,8.6094,8.6094,8.6094,8.6094,8.6094,8.6094,8.6094,8.6094,8.6094,8.6094,8.6094,8.6094,8.6094,8.6094,8.6094,8.6094,8.6094,8.6094,8.6094,8.6094,8.6094,8.6094,8.6094,8.6094,8.6094,8.6094,8.6094,8.6094,8.6094,8.6094,8.6094,8.6094,8.6094,8.6094,8.6094,8.6094,8.6094,8.6094,8.6094,8.6094,8.6094,8.6094,8.6094,8.6094,8.6094,8.6094,8.6094,5.8165,0.0,0.0,0.0,0.0,0.0,0.0,0.0,0.0,0.0,0.0,0.0,0.0,0.0,0.0,0.0,0.0,0.0,0.0,0.0,0.0,0.0,0.0,0.0,0.0,0.0,0.0,0.0,0.0,0.0,0.0,0.0,0.0,0.0,0.0,0.0,8.1093,8.1093,8.1093,8.1093,8.1093,8.1093,8.1093,8.1093,8.1093,8.1093,8.1093,8.1093,8.1093,8.1093,8.1093,8.1093,8.1093,8.1439,8.2093,8.317,8.3978,8.467,8.5747,8.6094,8.6094,8.6094,8.6094,8.6094,8.6094,8.6094,8.6094,8.6094,8.6094,8.6094,8.6094,8.6094,8.6094,8.6094,8.6094,8.6094,8.6094,8.6094,8.6094,8.6094,8.6094,8.6094,8.6094,8.6094,8.6094,8.6094,8.6094,8.6094,8.6094,8.6094,8.6094,8.6094,8.6094,8.6094,8.6094,8.6094,8.6094,8.6094,8.6094,8.6094,8.6094,8.6094,8.6094,8.6094,8.6094,8.6094,8.6094,8.6094,8.6094,8.6094,8.6094,8.6094,0.0,0.0,0.0,0.0,0.0,0.0,0.0,0.0,0.0,0.0,0.0,0.0,0.0,0.0,0.0,0.0,0.0,0.0,0.0,0.0,0.0,0.0,0.0,0.0,0.0,0.0,0.0,0.0,0.0,0.0,0.0,0.0,0.0,0.0,0.0,0.0,8.1093,8.1093,8.1093,8.1093,8.1093,8.1093,8.1093,8.1093,8.1093,8.1093,8.1093,8.1093,8.1093,8.1093,8.1093,8.1093,8.1093,8.1593,8.2401,8.3285,8.4132,8.5016,8.5824,8.6094,8.6094,8.6094,8.6094,8.6094,8.6094,8.6094,8.6094,8.6094,8.6094,8.6094,8.6094,8.6094,8.6094,8.6094,8.6094,8.6094,8.6094,8.6094,8.6094,8.6094,8.6094,8.6094,8.6094,8.6094,8.6094,8.6094,8.6094,8.6094,8.6094,8.6094,8.6094,8.6094,8.6094,8.6094,8.6094,8.6094,8.6094,8.6094,8.6094,8.6094,8.6094,8.6094,8.6094,8.6094,8.6094,8.6094,8.6094,8.6094,8.6094,8.6094,8.6094,8.6094,0.0,0.0,0.0,0.0,0.0,0.0,0.0,0.0,0.0,0.0,0.0,0.0,0.0,0.0,0.0,0.0,0.0,0.0,0.0,0.0,0.0,0.0,0.0,0.0,0.0,0.0,0.0,0.0,0.0,0.0,0.0,0.0,0.0,0.0,0.0,0.0,8.1093,8.1093,8.1093,0.0,8.1093,8.1093,8.1093,8.1093,8.1093,8.1093,8.1093,8.1093,8.1093,8.1093,8.1093,8.1093,8.1093,8.1631,8.2516,8.3324,8.4209,8.5132,8.5863,8.6094,8.6094,8.6094,8.6094,8.6094,8.6094,8.6094,8.6094,8.6094,8.6094,8.6094,8.6094,8.6094,8.6094,8.6094,8.6094,8.6094,8.6094,8.6094,8.6094,8.6094,8.6094,8.6094,8.6094,8.6094,8.6094,8.6094,8.6094,8.6094,8.6094,8.6094,8.6094,8.6094,8.6094,8.6094,8.6094,8.6094,8.6094,8.6094,8.6094,8.6094,8.6094,8.6094,8.6094,8.6094,8.6094,8.6094,8.6094,8.6094,8.6094,8.6094,8.6094,8.6094,0.0,0.0,0.0,0.0,0.0,0.0,0.0,0.0,0.0,0.0,0.0,0.0,0.0,0.0,0.0,0.0,0.0,0.0,0.0,0.0,0.0,0.0,0.0,0.0,0.0,0.0,0.0,0.0,0.0,0.0,0.0,0.0,0.0,0.0,0.0,8.1093,8.1093,8.1093,8.1093,0.0,8.1093,8.1093,8.1093,8.1093,8.1093,8.1093,8.1093,8.1093,8.1093,8.1093,8.1093,8.1093,8.1093,8.2016,8.3324,8.3516,8.4555,8.5863,8.6055,8.6094,8.6094,8.6094,8.6094,8.6094,8.6094,8.6094,8.6094,8.6094,8.6094,8.6094,8.6094,8.6094,8.6094,8.6094,8.6094,8.6094,8.6094,8.6094,8.6094,8.6094,8.6094,8.6094,8.6094,8.6094,8.6094,8.6094,8.6094,8.6094,8.6094,8.6094,8.6094,8.6094,8.6094,8.6094,8.6094,8.6094,8.6094,8.6094,8.6094,8.6094,8.6094,8.6094,8.6094,8.6094,8.6094,8.6094,8.6094,8.6094,8.6094,8.6094,8.6094,8.6094,0.0,0.0,0.0,0.0,0.0,0.0,0.0,0.0,0.0,0.0,0.0,0.0,0.0,0.0,0.0,0.0,0.0,0.0,0.0,0.0,0.0,0.0,0.0,0.0,0.0,0.0,0.0,0.0,0.0,0.0,0.0,0.0,0.0,0.0,8.1093,8.1093,8.1093,8.1093,8.1093,8.1093,8.1093,8.1093,8.1093,8.1093,8.1093,8.1093,8.1093,8.1093,8.1093,8.1093,8.1093,8.1093,8.1093,8.2131,8.3593,8.3593,8.467,8.6094,8.6094,8.6094,8.6094,8.6094,8.6094,8.6094,8.6094,8.6094,8.6094,8.6094,8.6094,8.6094,8.6094,8.6094,8.6094,8.6094,8.6094,8.6094,8.6094,8.6094,8.6094,8.6094,8.6094,8.6094,8.6094,8.6094,8.6094,8.6094,8.6094,8.6094,8.6094,8.6094,8.6094,8.6094,8.6094,8.6094,8.6094,8.6094,8.6094,8.6094,8.6094,8.6094,8.6094,8.6094,8.6094,8.6094,8.6094,8.6094,8.6094,8.6094,8.6094,8.6094,8.6094,8.6094,0.0,0.0,0.0,0.0,0.0,0.0,0.0,0.0,0.0,0.0,0.0,0.0,0.0,0.0,0.0,0.0,0.0,0.0,0.0,0.0,0.0,0.0,0.0,0.0,0.0,0.0,0.0,0.0,0.0,0.0,0.0,0.0,8.0939,8.1093,8.1093,8.1093,8.1093,8.1093,8.1093,8.1093,8.1093,8.1093,8.1093,8.1093,8.1093,8.1093,8.1093,8.1093,8.1093,8.1093,8.1093,8.1093,8.1093,8.2131,8.3593,8.3593,8.467,8.6094,8.6094,8.6094,8.6094,8.6094,8.6094,8.6094,8.6094,8.6094,8.6094,8.6094,8.6094,8.6094,8.6094,8.6094,8.6094,8.6094,8.6094,8.6094,8.6094,8.6094,8.6094,8.6094,8.6094,8.6094,8.6094,8.6094,8.6094,8.6094,8.6094,8.6094,8.6094,8.6094,8.6094,8.6094,8.6094,8.6094,8.6094,8.6094,8.6094,8.6094,8.6094,8.6094,8.6094,8.6094,8.6094,8.6094,8.6094,8.6094,8.6094,8.6094,8.6094,8.6094,8.6094,8.6094,0.0,0.0,0.0,0.0,0.0,0.0,0.0,0.0,0.0,0.0,0.0,0.0,0.0,0.0,0.0,0.0,0.0,0.0,0.0,0.0,0.0,0.0,0.0,0.0,0.0,0.0,0.0,0.0,0.0,0.0,0.0,7.9438,8.0323,8.1093,8.1093,8.1093,8.1093,8.1093,8.1093,8.1093,8.1093,8.1093,8.1093,8.1093,8.1093,8.1093,8.1093,8.1093,8.1093,8.1093,8.1093,8.1093,8.1093,8.2131,8.3593,8.3593,8.467,8.6094,8.6094,8.6094,8.6094,8.6094,8.6094,8.6094,8.6094,8.6094,8.6094,8.6094,8.6094,8.6094,8.6094,8.6094,8.6094,8.6094,8.6094,8.6094,8.6094,8.6094,8.6094,8.6094,8.6094,8.6094,8.6094,8.6094,8.6094,8.6094,8.6094,8.6094,8.6094,8.6094,8.6094,8.6094,8.6094,8.6094,8.6094,8.6094,8.6094,8.6094,8.6094,8.6094,8.6094,8.6094,8.6094,8.6094,8.6094,8.6094,8.6094,8.6094,8.6094,8.6094,8.6094,8.6094,0.0,0.0,0.0,0.0,0.0,0.0,0.0,0.0,0.0,0.0,0.0,0.0,0.0,0.0,0.0,0.0,0.0,0.0,0.0,0.0,0.0,0.0,0.0,0.0,0.0,0.0,0.0,0.0,0.0,0.0,7.8438,7.9323,8.0208,8.1054,8.1093,8.1093,8.1093,8.1093,8.1093,8.1093,8.1093,8.1093,8.1093,8.1093,8.1093,8.1093,8.1093,8.1093,8.1093,8.1093,8.1093,8.1093,8.1093,8.2131,8.3593,8.3593,8.467,8.6094,8.6094,8.6094,8.6094,8.6094,8.6094,8.6094,8.6094,8.6094,8.6094,8.6094,8.6094,8.6094,8.6094,8.6094,8.6094,8.6094,8.6094,8.6094,8.6094,8.6094,8.6094,8.6094,8.6094,8.6094,8.6094,8.6094,8.6094,8.6094,8.6094,8.6094,8.6094,8.6094,8.6094,8.6094,8.6094,8.6094,8.6094,8.6094,8.6094,8.6094,8.6094,8.6094,8.6094,8.6094,8.6094,8.6094,8.6094,8.6094,8.6094,8.6094,8.6094,8.6094,8.6094,8.6094,0.0,0.0,0.0,0.0,0.0,0.0,0.0,0.0,0.0,0.0,0.0,0.0,0.0,0.0,0.0,0.0,0.0,0.0,0.0,0.0,0.0,0.0,0.0,0.0,0.0,0.0,0.0,0.0,0.0,0.0,7.8438,7.9131,7.9977,8.1054,8.1093,8.1093,8.1093,8.1093,8.1093,8.1093,8.1093,8.1093,8.1093,8.1093,8.1093,8.1093,8.1093,8.1093,8.1093,8.1093,8.1093,8.1093,8.1093,8.2131,8.3593,8.3593,8.467,8.6094,8.6094,8.6094,8.6094,8.6094,8.6094,8.6094,8.6094,8.6094,8.6094,8.6094,8.6094,8.6094,8.6094,8.6094,8.6094,8.6094,8.6094,8.6094,8.6094,8.6094,8.6094,8.6094,8.6094,8.6094,8.6094,8.6094,8.6094,8.6094,8.6094,8.6094,8.6094,8.6094,8.6094,8.6094,8.6094,8.6094,8.6094,8.6094,8.6094,8.6094,8.6094,8.6094,8.6094,8.6094,8.6094,8.6094,8.6094,8.6094,8.6094,8.6094,8.6094,8.6094,8.6094,8.6094,0.0,0.0,0.0,0.0,0.0,0.0,0.0,0.0,0.0,0.0,0.0,0.0,0.0,0.0,0.0,0.0,0.0,0.0,0.0,0.0,0.0,0.0,0.0,0.0,0.0,0.0,0.0,0.0,0.0,0.0,7.84,7.8515,7.9361,8.1054,8.1093,8.1093,8.1093,8.1093,8.1093,8.1093,8.1093,8.1093,8.1093,8.1093,8.1093,8.1093,8.1093,8.1093,8.1093,8.1093,8.1093,8.1093,8.1093,8.2131,8.3593,8.3593,8.467,8.6094,8.6094,8.6094,8.6094,8.6094,8.6094,8.6094,8.6094,8.6094,8.6094,8.6094,8.6094,8.6094,8.6094,8.6094,8.6094,8.6094,8.6094,8.6094,8.6094,8.6094,8.6094,8.6094,8.6094,8.6094,8.6094,8.6094,8.6094,8.6094,8.6094,8.6094,8.6094,8.6094,8.6094,8.6094,8.6094,8.6094,8.6094,8.6094,8.6094,8.6094,8.6094,8.6094,8.6094,8.6094,8.6094,8.6094,8.6094,8.6094,8.6094,8.6094,8.6094,8.6094,8.6094,8.6094,0.0,0.0,0.0,0.0,0.0,0.0,0.0,0.0,0.0,0.0,0.0,0.0,0.0,0.0,0.0,0.0,0.0,0.0,0.0,0.0,0.0,0.0,0.0,0.0,0.0,0.0,0.0,0.0,0.0,0.0,7.7669,7.8207,7.9054,8.0246,8.0823,8.1093,8.1093,8.1093,8.1093,8.1093,8.1093,8.1093,8.1093,8.1093,8.1093,8.1093,8.1093,8.1093,8.1093,8.1093,8.1093,8.1093,8.1093,8.2131,8.3593,8.3593,8.467,8.6094,8.6094,8.6094,8.6094,8.6094,8.6094,8.6094,8.6094,8.6094,8.6094,8.6094,8.6094,8.6094,8.6094,8.6094,8.6094,8.6094,8.6094,8.6094,8.6094,8.6094,8.6094,8.6094,8.6094,8.6094,8.6094,8.6094,8.6094,8.6094,8.6094,8.6094,8.6094,8.6094,8.6094,8.6094,8.6094,8.6094,8.6094,8.6094,8.6094,8.6094,8.6094,8.6094,8.6094,8.6094,8.6094,8.6094,8.6094,8.6094,8.6094,8.6094,8.6094,8.6094,8.6094,8.6094,0.0,0.0,0.0,0.0,0.0,0.0,0.0,0.0,0.0,0.0,0.0,0.0,0.0,0.0,0.0,0.0,0.0,0.0,0.0,0.0,0.0,0.0,0.0,0.0,0.0,0.0,0.0,0.0,0.0,0.0,7.7246,7.8054,7.9015,8.0208,8.0785,8.1093,8.1093,8.1093,8.1093,8.1093,8.1093,8.1093,8.1093,8.1093,8.1093,8.1093,8.1093,8.1093,8.1093,8.1093,8.1093,8.1093,8.1093,8.2131,8.3593,8.3593,8.467,8.6094,8.6094,8.6094,8.6094,8.6094,8.6094,8.6094,8.6094,8.6094,8.6094,8.6094,8.6094,8.6094,8.6094,8.6094,8.6094,8.6094,8.6094,8.6094,8.6094,8.6094,8.6094,8.6094,8.6094,8.6094,8.6094,8.6094,8.6094,8.6094,8.6094,8.6094,8.6094,8.6094,8.6094,8.6094,8.6094,8.6094,8.6094,8.6094,8.6094,8.6094,8.6094,8.6094,8.6094,8.6094,8.6094,8.6094,8.6094,8.6094,8.6094,8.6094,8.6094,8.6094,8.6094,8.6094,0.0,0.0,0.0,0.0,0.0,0.0,0.0,0.0,0.0,0.0,0.0,0.0,0.0,0.0,0.0,0.0,0.0,0.0,0.0,0.0,0.0,0.0,0.0,0.0,0.0,0.0,0.0,0.0,0.0,7.6361,7.7207,7.8054,7.9285,8.1016,8.1093,8.1093,8.1093,8.1093,8.1093,8.1093,8.1093,8.1093,8.1093,8.1093,8.1093,8.1093,8.1093,8.1093,8.1093,8.1093,8.1093,8.1093,8.1093,8.2131,8.3593,8.3593,8.467,8.6094,8.6094,8.6094,8.6094,8.6094,8.6094,8.6094,8.6094,8.6094,8.6094,8.6094,8.6094,8.6094,8.6094,8.6094,8.6094,8.6094,8.6094,8.6094,8.6094,8.6094,8.6094,8.6094,8.6094,8.6094,8.6094,8.6094,8.6094,8.6094,8.6094,8.6094,8.6094,8.6094,8.6094,8.6094,8.6094,8.6094,8.6094,8.6094,8.6094,8.6094,8.6094,8.6094,8.6094,8.6094,8.6094,8.6094,8.6094,8.6094,8.6094,8.6094,8.6094,8.6094,8.6094,8.6094,6.0781,0.0,0.0,0.0,0.0,0.0,0.0,0.0,0.0,0.0,0.0,0.0,0.0,0.0,0.0,0.0,0.0,0.0,0.0,0.0,0.0,0.0,0.0,0.0,0.0,0.0,0.0,0.0,7.6015,7.6092,7.6361,7.7707,7.9015,8.0131,8.0785,8.1093,8.1093,8.1093,8.1093,8.1093,8.1093,8.1093,8.1093,8.1093,8.1093,8.1093,8.1093,8.1093,8.1093,8.1093,8.1093,8.1093,8.1093,8.2131,8.3593,8.3593,8.467,8.6094,8.6094,8.6094,8.6094,8.6094,8.6094,8.6094,8.6094,8.6094,8.6094,8.6094,8.6094,8.6094,8.6094,8.6094,8.6094,8.6094,8.6094,8.6094,8.6094,8.6094,8.6094,8.6094,8.6094,8.6094,8.6094,8.6094,8.6094,8.6094,8.6094,8.6094,8.6094,8.6094,8.6094,8.6094,8.6094,8.6094,8.6094,8.6094,8.6094,8.6094,8.6094,8.6094,8.6094,8.6094,8.6094,8.6094,8.6094,8.6094,8.6094,8.6094,8.6094,8.6094,8.6094,8.6094,0.0,0.0,0.0,0.0,0.0,0.0,0.0,6.5897,0.0,0.0,0.0,0.0,0.0,0.0,0.0,0.0,0.0,0.0,0.0,0.0,0.0,0.0,0.0,0.0,0.0,0.0,0.0,0.0,7.6015,7.6169,7.6515,7.7476,7.8554,7.9746,8.0285,8.0746,8.1093,8.1093,8.1093,8.1093,8.1093,8.1093,8.1093,8.1093,8.1093,8.1093,8.1093,8.1093,8.1093,8.1093,8.1093,8.1093,8.1093,8.2131,8.3593,8.3593,8.467,8.6094,8.6094,8.6094,8.6094,8.6094,8.6094,8.6094,8.6094,8.6094,8.6094,8.6094,8.6094,8.6094,8.6094,8.6094,8.6094,8.6094,8.6094,8.6094,8.6094,8.6094,8.6094,8.6094,8.6094,8.6094,8.6094,8.6094,8.6094,8.6094,8.6094,8.6094,8.6094,8.6094,8.6094,8.6094,8.6094,8.6094,8.6094,8.6094,8.6094,8.6094,8.6094,8.6094,8.6094,8.6094,8.6094,8.6094,8.6094,8.6094,8.6094,8.6094,8.6094,8.6094,8.6094,8.6094,0.0,0.0,0.0,0.0,0.0,0.0,6.5897,6.5897,6.5897,0.0,0.0,0.0,0.0,0.0,0.0,0.0,0.0,0.0,0.0,0.0,0.0,0.0,0.0,0.0,0.0,0.0,7.5899,7.5976,7.6015,7.6322,7.7092,7.7246,7.8015,7.9631,7.9746,8.0208,8.1093,8.1093,8.1093,8.1093,8.1093,8.1093,8.1093,8.1093,8.1093,8.1093,8.1093,8.1093,8.1093,8.1093,8.1093,8.1093,8.1093,8.2131,8.3593,8.3593,8.467,8.6094,8.6094,8.6094,8.6094,8.6094,8.6094,8.6094,8.6094,8.6094,8.6094,8.6094,8.6094,8.6094,8.6094,8.6094,8.6094,8.6094,8.6094,8.6094,8.6094,8.6094,8.6094,8.6094,8.6094,8.6094,8.6094,8.6094,8.6094,8.6094,8.6094,8.6094,8.6094,8.6094,8.6094,8.6094,8.6094,8.6094,8.6094,8.6094,8.6094,8.6094,8.6094,8.6094,8.6094,8.6094,8.6094,8.6094,8.6094,8.6094,8.6094,8.6094,8.6094,8.6094,8.6094,8.6094,0.0,0.0,0.0,0.0,0.0,0.0,6.5897,6.5897,6.5897,0.0,0.0,0.0,0.0,0.0,0.0,0.0,0.0,0.0,0.0,0.0,0.0,0.0,0.0,0.0,0.0,0.0,7.5245,7.5938,7.6015,7.6053,7.6245,7.6899,7.7746,7.8707,7.9438,8.0208,8.1093,8.1093,8.1093,8.1093,8.1093,8.1093,8.1093,8.1093,8.1093,8.1093,8.1093,8.1093,8.1093,8.1093,8.1093,8.1093,8.1093,8.2131,8.3593,8.3593,8.467,8.6094,8.6094,8.6094,8.6094,8.6094,8.6094,8.6094,8.6094,8.6094,8.6094,8.6094,8.6094,8.6094,8.6094,8.6094,8.6094,8.6094,8.6094,8.6094,8.6094,8.6094,8.6094,8.6094,8.6094,8.6094,8.6094,8.6094,8.6094,8.6094,8.6094,8.6094,8.6094,8.6094,8.6094,8.6094,8.6094,8.6094,8.6094,8.6094,8.6094,8.6094,8.6094,8.6094,8.6094,8.6094,8.6094,8.6094,8.6094,8.6094,8.6094,8.6094,8.6094,8.6094,8.6094,8.6094,0.0,0.0,0.0,6.5128,0.0,0.0,0.0,6.5897,6.5897,6.5897,0.0,0.0,0.0,0.0,0.0,0.0,0.0,0.0,0.0,0.0,0.0,0.0,0.0,0.0,0.0,0.0,7.5053,7.5938,7.6015,7.6015,7.6015,7.6399,7.7053,7.7861,7.8707,7.9554,8.0439,8.09,8.1093,8.1093,8.1093,8.1093,8.1093,8.1093,8.1093,8.1093,8.1093,8.1093,8.1093,8.1093,8.1093,8.1093,8.1093,8.2131,8.3593,8.3593,8.467,8.6094,8.6094,8.6094,8.6094,8.6094,8.6094,8.6094,8.6094,8.6094,8.6094,8.6094,8.6094,8.6094,8.6094,8.6094,8.6094,8.6094,8.6094,8.6094,8.6094,8.6094,8.6094,8.6094,8.6094,8.6094,8.6094,8.6094,8.6094,8.6094,8.6094,8.6094,8.6094,8.6094,8.6094,8.6094,8.6094,8.6094,8.6094,8.6094,8.6094,8.6094,8.6094,8.6094,8.6094,8.6094,8.6094,8.6094,8.6094,8.6094,8.6094,8.6094,8.6094,8.6094,8.6094,8.6094,0.0,0.0,0.0,0.0,0.0,6.5897,0.0,0.0,0.0,6.5897,0.0,0.0,0.0,0.0,0.0,0.0,0.0,0.0,0.0,0.0,0.0,0.0,0.0,0.0,0.0,0.0,7.4976,7.5707,7.5899,7.6015,7.6015,7.6015,7.6399,7.7284,7.8092,7.89,7.9785,8.0669,8.1093,8.1093,8.1093,8.1093,8.1093,8.1093,8.1093,8.1093,8.1093,8.1093,8.1093,8.1093,8.1093,8.1093,8.1093,8.2131,8.3593,8.3593,8.467,8.6094,8.6094,8.6094,8.6094,8.6094,8.6094,8.6094,8.6094,8.6094,8.6094,8.6094,8.6094,8.6094,8.6094,8.6094,8.6094,8.6094,8.6094,8.6094,8.6094,8.6094,8.6094,8.6094,8.6094,8.6094,8.6094,8.6094,8.6094,8.6094,8.6094,8.6094,8.6094,8.6094,8.6094,8.6094,8.6094,8.6094,8.6094,8.6094,8.6094,8.6094,8.6094,8.6094,8.6094,8.6094,8.6094,8.6094,8.6094,8.6094,8.6094,8.6094,8.6094,8.6094,8.6094,8.6094,0.0,0.0,0.0,0.0,6.5897,0.0,0.0,0.0,6.5897,6.5897,0.0,0.0,0.0,0.0,0.0,0.0,0.0,0.0,0.0,0.0,0.0,0.0,0.0,0.0,0.0,0.0,0.0,7.4861,7.5553,7.6015,7.6015,7.6015,7.6399,7.7284,7.8092,7.89,7.9785,8.0669,8.1093,8.1093,8.1093,8.1093,8.1093,8.1093,8.1093,8.1093,8.1093,8.1093,8.1093,8.1093,8.1093,8.1093,8.1093,8.2131,8.3593,8.3593,8.467,8.6094,8.6094,8.6094,8.6094,8.6094,8.6094,8.6094,8.6094,8.6094,8.6094,8.6094,8.6094,8.6094,8.6094,8.6094,8.6094,8.6094,8.6094,8.6094,8.6094,8.6094,8.6094,8.6094,8.6094,8.6094,8.6094,8.6094,8.6094,8.6094,8.6094,8.6094,8.6094,8.6094,8.6094,8.6094,8.6094,8.6094,8.6094,8.6094,8.6094,8.6094,8.6094,8.6094,8.6094,8.6094,8.6094,8.6094,8.6094,8.6094,8.6094,8.6094,8.6094,8.6094,8.6094,8.6094,0.0,0.0,0.0,0.0,0.0,0.0,0.0,0.0,6.5897,0.0,0.0,0.0,0.0,0.0,0.0,0.0,0.0,0.0,0.0,0.0,0.0,0.0,0.0,0.0,0.0,0.0,0.0,0.0,0.0,7.5476,7.5976,7.6015,7.6169,7.6515,7.7361,7.8207,7.9054,7.99,8.0592,8.1093,8.1093,8.1093,8.1093,8.1093,8.1093,8.1093,8.1093,8.1093,8.1093,8.1093,8.1093,8.1093,8.1093,8.2131,8.3593,8.3593,8.467,8.6094,8.6094,8.6094,8.6094,8.6094,8.6094,8.6094,8.6094,8.6094,8.6094,8.6094,8.6094,8.6094,8.6094,8.6094,8.6094,8.6094,8.6094,8.6094,8.6094,8.6094,8.6094,8.6094,8.6094,8.6094,8.6094,8.6094,8.6094,8.6094,8.6094,8.6094,8.6094,8.6094,8.6094,8.6094,8.6094,8.6094,8.6094,8.6094,8.6094,8.6094,8.6094,8.6094,8.6094,8.6094,8.6094,8.6094,8.6094,8.6094,8.6094,8.6094,8.6094,8.6094,8.6094,8.6094,6.5897,0.0,0.0,0.0,0.0,0.0,0.0,0.0,0.0,0.0,0.0,0.0,0.0,0.0,0.0,0.0,0.0,0.0,0.0,0.0,0.0,0.0,0.0,0.0,0.0,0.0,0.0,0.0,7.4591,7.5091,7.5938,7.6015,7.6015,7.6015,7.6861,7.7669,7.8477,7.9361,8.0246,8.1093,8.1093,8.1093,8.1093,8.1093,8.1093,8.1093,8.1093,8.1093,8.1093,8.1093,8.1093,8.1093,8.1093,8.2131,8.3593,8.3593,8.467,8.6094,8.6094,8.6094,8.6094,8.6094,8.6094,8.6094,8.6094,8.6094,8.6094,8.6094,8.6094,8.6094,8.6094,8.6094,8.6094,8.6094,8.6094,8.6094,8.6094,8.6094,8.6094,8.6094,8.6094,8.6094,8.6094,8.6094,8.6094,8.6094,8.6094,8.6094,8.6094,8.6094,8.6094,8.6094,8.6094,8.6094,8.6094,8.6094,8.6094,8.6094,8.6094,8.6094,8.6094,8.6094,8.6094,8.6094,8.6094,8.6094,8.6094,8.6094,8.6094,8.6094,8.6094,8.6094,0.0,0.0,0.0,6.5897,0.0,0.0,0.0,0.0,6.5897,0.0,0.0,0.0,0.0,0.0,0.0,0.0,0.0,0.0,0.0,0.0,0.0,0.0,0.0,0.0,0.0,0.0,0.0,7.3476,7.4284,7.5091,7.5938,7.6015,7.6015,7.6015,7.6861,7.7669,7.8477,7.9361,8.0246,8.1093,8.1093,8.1093,8.1093,8.1093,8.1093,8.1093,8.1093,8.1093,8.1093,8.1093,8.1093,8.1093,8.1093,8.2131,8.3593,8.3593,8.467,8.6094,8.6094,8.6094,8.6094,8.6094,8.6094,8.6094,8.6094,8.6094,8.6094,8.6094,8.6094,8.6094,8.6094,8.6094,8.6094,8.6094,8.6094,8.6094,8.6094,8.6094,8.6094,8.6094,8.6094,8.6094,8.6094,8.6094,8.6094,8.6094,8.6094,8.6094,8.6094,8.6094,8.6094,8.6094,8.6094,8.6094,8.6094,8.6094,8.6094,8.6094,8.6094,8.6094,8.6094,8.6094,8.6094,8.6094,8.6094,8.6094,8.6094,8.6094,8.6094,8.6094,8.6094,8.6094,0.0,0.0,6.5897,6.5897,0.0,0.0,0.0,0.0,0.0,0.0,0.0,0.0,0.0,0.0,0.0,0.0,0.0,0.0,0.0,0.0,0.0,0.0,0.0,0.0,0.0,0.0,0.0,7.2552,7.3437,7.4284,0.0,7.5707,7.6015,7.6015,7.6284,7.7092,7.8477,7.8784,7.9669,8.1093,8.1093,8.1093,8.1093,8.1093,8.1093,8.1093,8.1093,8.1093,8.1093,8.1093,8.1093,8.1093,8.1093,8.2131,8.3593,8.3593,8.467,8.6094,8.6094,8.6094,8.6094,8.6094,8.6094,8.6094,8.6094,8.6094,8.6094,8.6094,8.6094,8.6094,8.6094,8.6094,8.6094,8.6094,8.6094,8.6094,8.6094,8.6094,8.6094,8.6094,8.6094,8.6094,8.6094,8.6094,8.6094,8.6094,8.6094,8.6094,8.6094,8.6094,8.6094,8.6094,8.6094,8.6094,8.6094,8.6094,8.6094,8.6094,8.6094,8.6094,8.6094,8.6094,8.6094,8.6094,8.6094,8.6094,8.6094,8.6094,8.6094,8.6094,8.6094,8.6094,6.5897,6.5897,0.0,6.5897,6.5897,0.0,6.5897,0.0,0.0,0.0,0.0,0.0,0.0,0.0,0.0,0.0,0.0,0.0,0.0,0.0,0.0,0.0,0.0,0.0,0.0,0.0,7.0937,7.2091,7.3014,7.386,0.0,0.0,7.6015,7.6015,7.6015,7.6669,7.8054,7.8361,7.9208,8.0631,8.0939,8.1093,8.1093,8.1093,8.1093,8.1093,8.1093,8.1093,8.1093,8.1093,8.1093,8.1131,8.14,8.2362,8.3593,8.3593,8.467,8.6094,8.6094,8.6094,8.6094,8.6094,8.6094,8.6094,8.6094,8.6094,8.6094,8.6094,8.6094,8.6094,8.6094,8.6094,8.6094,8.6094,8.6094,8.6094,8.6094,8.6094,8.6094,8.6094,8.6094,8.6094,8.6094,8.6094,8.6094,8.6094,8.6094,8.6094,8.6094,8.6094,8.6094,8.6094,8.6094,8.6094,8.6094,8.6094,8.6094,8.6094,8.6094,8.6094,8.6094,8.6094,8.6094,8.6094,8.6094,8.6094,8.6094,8.6094,8.6094,8.6094,8.6094,8.6094]},{"header":{"parameterUnit":"m.s-1","parameterCategory":1,"la1":30.6,"la2":29.2853,"lo1":-89.7004,"lo2":-87.6739,"dx":0.0162,"dy":0.0183,"nx":112,"ny":82,"refTime":"2023-02-06T06:00:00:Z","depth":0,"parameterNumber":3,"parameterNumberName":"V-component_of_WINDS"},"data":[0.0,0.0,0.0,0.0,0.0,0.0,0.0,0.0,0.0,0.0,0.0,0.0,0.0,0.0,0.0,0.0,0.0,0.0,0.0,0.0,0.0,0.0,0.0,0.0,0.0,0.0,0.0,0.0,0.0,0.0,0.0,0.0,0.0,0.0,0.0,0.0,0.0,0.0,0.0,0.0,0.0,0.0,0.0,0.0,0.0,0.0,0.0,0.0,0.0,0.0,0.0,0.0,0.0,0.0,0.0,0.0,0.0,0.0,0.0,0.0,0.0,0.0,0.0,0.0,0.0,0.0,0.0,0.0,0.0,0.0,0.0,0.0,0.0,0.0,0.0,0.0,0.0,0.0,0.0,0.0,0.0,0.0,0.0,0.0,0.0,0.0,0.0,0.0,0.0,0.0,0.0,0.0,0.0,0.0,0.0,0.0,0.0,0.0,0.0,0.0,0.0,0.0,0.0,0.0,0.0,0.0,0.0,0.0,0.0,0.0,0.0,0.0,0.0,0.0,0.0,0.0,0.0,0.0,0.0,0.0,0.0,0.0,0.0,0.0,0.0,0.0,0.0,0.0,0.0,0.0,0.0,0.0,0.0,0.0,0.0,0.0,0.0,0.0,0.0,0.0,0.0,0.0,0.0,0.0,0.0,0.0,0.0,0.0,0.0,0.0,0.0,0.0,0.0,0.0,0.0,0.0,0.0,0.0,0.0,0.0,0.0,0.0,0.0,0.0,0.0,0.0,0.0,0.0,0.0,0.0,0.0,0.0,0.0,0.0,0.0,0.0,0.0,0.0,0.0,0.0,0.0,0.0,0.0,0.0,0.0,0.0,0.0,0.0,0.0,0.0,0.0,0.0,0.0,0.0,0.0,0.0,0.0,0.0,0.0,0.0,0.0,0.0,0.0,0.0,0.0,0.0,0.0,0.0,0.0,0.0,0.0,0.0,0.0,0.0,0.0,0.0,0.0,0.0,0.0,0.0,0.0,0.0,0.0,0.0,0.0,0.0,0.0,0.0,0.0,0.0,0.0,0.0,0.0,0.0,0.0,0.0,0.0,0.0,0.0,0.0,0.0,0.0,0.0,0.0,0.0,0.0,0.0,0.0,0.0,0.0,0.0,0.0,0.0,0.0,0.0,0.0,0.0,0.0,0.0,0.0,0.0,0.0,0.0,0.0,0.0,0.0,0.0,0.0,0.0,0.0,0.0,0.0,0.0,0.0,0.0,0.0,0.0,0.0,0.0,0.0,0.0,0.0,0.0,0.0,0.0,0.0,0.0,0.0,0.0,0.0,0.0,0.0,0.0,0.0,0.0,0.0,0.0,0.0,0.0,0.0,0.0,0.0,0.0,0.0,0.0,0.0,0.0,0.0,0.0,0.0,0.0,0.0,0.0,0.0,0.0,0.0,0.0,0.0,0.0,0.0,0.0,0.0,0.0,0.0,0.0,0.0,0.0,0.0,0.0,0.0,0.0,0.0,0.0,0.0,0.0,0.0,0.0,0.0,0.0,0.0,0.0,0.0,0.0,0.0,0.0,0.0,0.0,0.0,0.0,0.0,0.0,0.0,0.0,0.0,0.0,0.0,0.0,0.0,0.0,0.0,0.0,0.0,0.0,0.0,0.0,0.0,0.0,0.0,0.0,0.0,0.0,0.0,0.0,0.0,0.0,0.0,0.0,0.0,0.0,0.0,0.0,0.0,0.0,0.0,0.0,0.0,0.0,0.0,0.0,0.0,0.0,0.0,0.0,0.0,0.0,0.0,0.0,0.0,0.0,0.0,0.0,0.0,0.0,0.0,0.0,0.0,0.0,0.0,0.0,0.0,0.0,0.0,0.0,0.0,0.0,0.0,0.0,0.0,0.0,0.0,0.0,0.0,0.0,0.0,0.0,0.0,0.0,0.0,0.0,0.0,0.0,0.0,0.0,0.0,0.0,0.0,0.0,0.0,0.0,0.0,0.0,0.0,0.0,0.0,0.0,0.0,0.0,0.0,0.0,0.0,0.0,0.0,0.0,0.0,0.0,0.0,0.0,0.0,0.0,0.0,0.0,0.0,0.0,0.0,0.0,0.0,0.0,0.0,0.0,0.0,0.0,0.0,0.0,0.0,0.0,0.0,0.0,0.0,0.0,0.0,0.0,0.0,0.0,0.0,0.0,0.0,0.0,0.0,0.0,0.0,0.0,0.0,0.0,0.0,0.0,0.0,0.0,0.0,0.0,0.0,0.0,0.0,0.0,0.0,0.0,0.0,0.0,0.0,0.0,0.0,0.0,0.0,0.0,0.0,0.0,0.0,0.0,0.0,0.0,0.0,0.0,0.0,0.0,0.0,0.0,0.0,0.0,0.0,0.0,0.0,0.0,0.0,0.0,0.0,0.0,0.0,0.0,0.0,0.0,0.0,0.0,0.0,0.0,0.0,0.0,0.0,0.0,0.0,0.0,0.0,0.0,0.0,0.0,0.0,0.0,0.0,0.0,0.0,0.0,0.0,0.0,0.0,0.0,0.0,0.0,0.0,0.0,0.0,0.0,0.0,0.0,0.0,0.0,0.0,0.0,0.0,0.0,0.0,0.0,0.0,0.0,0.0,0.0,0.0,0.0,0.0,0.0,0.0,0.0,0.0,0.0,0.0,0.0,0.0,0.0,0.0,0.0,0.0,0.0,0.0,0.0,0.0,0.0,0.0,0.0,0.0,0.0,0.0,0.0,0.0,0.0,0.0,0.0,0.0,0.0,0.0,0.0,0.0,0.0,0.0,0.0,0.0,0.0,0.0,0.0,0.0,0.0,0.0,0.0,0.0,0.0,0.0,0.0,0.0,0.0,0.0,0.0,0.0,0.0,0.0,0.0,0.0,0.0,0.0,0.0,0.0,0.0,0.0,0.0,0.0,0.0,0.0,0.0,0.0,0.0,0.0,0.0,0.0,0.0,0.0,0.0,0.0,0.0,0.0,0.0,0.0,0.0,0.0,0.0,0.0,0.0,0.0,0.0,0.0,0.0,0.0,0.0,0.0,0.0,0.0,0.0,0.0,0.0,0.0,0.0,0.0,0.0,0.0,0.0,0.0,0.0,0.0,0.0,0.0,0.0,0.0,0.0,0.0,0.0,0.0,0.0,0.0,0.0,0.0,0.0,0.0,0.0,0.0,0.0,0.0,0.0,0.0,0.0,0.0,0.0,0.0,0.0,0.0,0.0,0.0,0.0,0.0,0.0,0.0,0.0,0.0,0.0,0.0,0.0,0.0,0.0,0.0,0.0,0.0,0.0,0.0,0.0,0.0,0.0,0.0,0.0,0.0,0.0,0.0,0.0,0.0,0.0,0.0,0.0,0.0,0.0,0.0,0.0,0.0,0.0,0.0,0.0,0.0,0.0,0.0,0.0,0.0,0.0,0.0,0.0,0.0,0.0,0.0,0.0,0.0,0.0,0.0,0.0,0.0,0.0,0.0,0.0,0.0,0.0,0.0,0.0,0.0,0.0,0.0,0.0,0.0,0.0,0.0,0.0,0.0,0.0,0.0,0.0,0.0,0.0,0.0,0.0,0.0,0.0,0.0,0.0,0.0,0.0,0.0,0.0,0.0,0.0,0.0,0.0,0.0,0.0,0.0,0.0,0.0,0.0,0.0,0.0,0.0,0.0,0.0,0.0,0.0,0.0,0.0,0.0,0.0,0.0,0.0,0.0,0.0,0.0,0.0,0.0,0.0,0.0,0.0,0.0,0.0,0.0,0.0,0.0,0.0,0.0,0.0,0.0,0.0,0.0,0.0,0.0,0.0,0.0,0.0,0.0,0.0,0.0,0.0,0.0,0.0,0.0,0.0,0.0,0.0,0.0,0.0,0.0,0.0,0.0,0.0,0.0,0.0,0.0,0.0,0.0,0.0,0.0,0.0,0.0,0.0,0.0,0.0,0.0,0.0,0.0,0.0,0.0,0.0,0.0,0.0,0.0,0.0,0.0,0.0,0.0,0.0,0.0,0.0,0.0,0.0,0.0,0.0,0.0,0.0,0.0,0.0,0.0,0.0,0.0,0.0,0.0,0.0,0.0,0.0,0.0,0.0,0.0,0.0,0.0,0.0,0.0,0.0,0.0,0.0,0.0,0.0,0.0,0.0,0.0,0.0,0.0,0.0,0.0,0.0,0.0,0.0,0.0,0.0,0.0,0.0,0.0,0.0,0.0,0.0,0.0,0.0,0.0,0.0,0.0,0.0,0.0,0.0,0.0,0.0,0.0,0.0,0.0,0.0,0.0,0.0,0.0,0.0,0.0,0.0,0.0,0.0,0.0,0.0,0.0,0.0,0.0,0.0,0.0,0.0,0.0,0.0,0.0,0.0,0.0,0.0,0.0,0.0,0.0,0.0,0.0,0.0,0.0,0.0,0.0,0.0,0.0,0.0,0.0,0.0,0.0,0.0,0.0,0.0,0.0,0.0,0.0,0.0,0.0,0.0,0.0,0.0,0.0,0.0,0.0,0.0,0.0,0.0,0.0,0.0,0.0,0.0,0.0,0.0,0.0,0.0,0.0,0.0,0.0,0.0,0.0,0.0,0.0,0.0,0.0,0.0,0.0,0.0,0.0,0.0,0.0,0.0,0.0,0.0,0.0,0.0,0.0,0.0,0.0,0.0,0.0,0.0,0.0,0.0,0.0,0.0,0.0,0.0,0.0,0.0,0.0,0.0,0.0,0.0,0.0,0.0,0.0,0.0,0.0,0.0,0.0,0.0,0.0,0.0,0.0,0.0,0.0,0.0,0.0,0.0,0.0,0.0,0.0,0.0,0.0,0.0,0.0,0.0,0.0,0.0,0.0,0.0,0.0,0.0,0.0,0.0,0.0,0.0,0.0,0.0,0.0,0.0,0.0,0.0,0.0,0.0,0.0,0.0,0.0,0.0,0.0,0.0,0.0,0.0,0.0,0.0,0.0,0.0,0.0,0.0,0.0,0.0,0.0,0.0,0.0,0.0,0.0,0.0,0.0,0.0,0.0,0.0,0.0,0.0,0.0,0.0,0.0,0.0,0.0,0.0,0.0,0.0,0.0,0.0,0.0,0.0,0.0,0.0,0.0,0.0,0.0,0.0,0.0,0.0,0.0,0.0,0.0,0.0,0.0,0.0,0.0,0.0,0.0,0.0,0.0,0.0,0.0,0.0,0.0,0.0,0.0,0.0,0.0,0.0,0.0,0.0,0.0,0.0,0.0,0.0,0.0,0.0,0.0,0.0,0.0,0.0,0.0,0.0,0.0,0.0,0.0,0.0,0.0,0.0,0.0,0.0,0.0,0.0,0.0,0.0,0.0,0.0,0.0,0.0,0.0,0.0,0.0,0.0,0.0,0.0,0.0,0.0,0.0,0.0,0.0,0.0,0.0,0.0,0.0,0.0,0.0,0.0,0.0,0.0,0.0,0.0,0.0,0.0,0.0,0.0,0.0,0.0,0.0,0.0,0.0,0.0,0.0,0.0,0.0,0.0,0.0,0.0,0.0,0.0,0.0,0.0,0.0,0.0,0.0,0.0,0.0,0.0,0.0,0.0,0.0,0.0,0.0,0.0,0.0,0.0,0.0,0.0,0.0,0.0,0.0,0.0,0.0,0.0,0.0,0.0,0.0,0.0,0.0,0.0,0.0,0.0,0.0,0.0,0.0,0.0,0.0,0.0,0.0,0.0,0.0,0.0,0.0,0.0,0.0,0.0,0.0,0.0,0.0,0.0,0.0,0.0,0.0,0.0,0.0,0.0,0.0,0.0,0.0,0.0,0.0,0.0,0.0,0.0,0.0,0.0,0.0,0.0,0.0,0.0,0.0,0.0,0.0,0.0,0.0,0.0,0.0,0.0,0.0,0.0,0.0,0.0,0.0,0.0,0.0,0.0,0.0,0.0,0.0,0.0,0.0,0.0,0.0,0.0,0.0,0.0,0.0,0.0,0.0,0.0,0.0,0.0,0.0,0.0,0.0,0.0,0.0,0.0,0.0,0.0,0.0,0.0,0.0,0.0,0.0,0.0,0.0,0.0,0.0,0.0,0.0,0.0,0.0,0.0,0.0,0.0,0.0,0.0,0.0,0.0,0.0,0.0,0.0,0.0,0.0,0.0,0.0,0.0,0.0,0.0,0.0,0.0,0.0,0.0,0.0,0.0,0.0,0.0,0.0,0.0,0.0,0.0,0.0,0.0,0.0,0.0,0.0,0.0,0.0,0.0,0.0,0.0,0.0,0.0,0.0,0.0,0.0,0.0,0.0,0.0,0.0,0.0,0.0,0.0,0.0,0.0,0.0,0.0,0.0,0.0,0.0,0.0,0.0,0.0,0.0,0.0,0.0,0.0,0.0,0.0,0.0,0.0,0.0,0.0,0.0,0.0,0.0,0.0,0.0,0.0,0.0,0.0,0.0,0.0,0.0,0.0,0.0,0.0,0.0,0.0,0.0,0.0,0.0,0.0,0.0,0.0,0.0,0.0,0.0,0.0,0.0,0.0,0.0,0.0,0.0,0.0,0.0,0.0,0.0,0.0,0.0,0.0,0.0,0.0,0.0,0.0,0.0,0.0,0.0,0.0,0.0,0.0,0.0,0.0,0.0,0.0,0.0,0.0,0.0,0.0,0.0,0.0,0.0,0.0,0.0,0.0,0.0,0.0,0.0,0.0,0.0,0.1009,0.0,0.0,0.0,0.0,0.0,0.0,0.0,0.0,0.0,0.0,0.0,0.0,0.0,0.0,0.0,0.0,0.0,0.0,0.0,0.0,0.0,0.0,0.0,0.0,0.0,0.0,0.0,0.0,0.0,0.0,0.0,0.0,0.0,0.0,0.0,0.0,0.0,0.0,0.0,0.0,0.0,0.0,0.0,0.0,0.0,0.0,0.0,0.0,0.0,0.0,0.0,0.0,0.0,0.0,0.0,0.0,0.0,0.0,0.0,0.0,0.0,0.0,0.0,0.0,0.0,0.0,0.0,0.0,0.0,0.0,0.0,0.0,0.0,0.0,0.0,0.0,0.0,0.0,0.0,0.0,0.0,0.0,0.0,0.0,0.0,0.0,0.0,0.0,0.0,0.0,0.0,0.0,0.0,0.0,0.0,0.0,0.0,0.0,0.0,0.0,0.0,0.0,0.0,0.0,0.0,0.0,0.0,0.0,0.0,0.0112,0.5278,0.505,0.0,0.0,0.0,0.0,0.0,0.0,0.0,0.0,0.0,0.0,0.0,0.0,0.0,0.0,0.0,0.0,0.0,0.0,0.0,0.0,0.0,0.0,0.0,0.0,0.0,0.0,0.0,0.0,0.0,0.0,0.0,0.0,0.0,0.0,0.0,0.0,0.0,0.0,0.0,0.0,0.0,0.0,0.0,0.0,0.0,0.0,0.0,0.0,0.0,0.0,0.0,0.0,0.0,0.0,0.0,0.0,0.0,0.0,0.0,0.0,0.0,0.0,0.0,0.0,0.0,0.0,0.0,0.0,0.0,0.0,0.0,0.0,0.0,0.0,0.0,0.0,0.0,0.0,0.0,0.0,0.0,0.0,0.0,0.0,0.0,0.0,0.0,0.0,0.0,0.0,0.0,0.0,0.0,0.0,0.0,0.0,0.0,0.0,0.0,0.0,0.0,0.0,0.0,0.0,0.0,0.0,0.0,0.0,0.0,0.0,0.2639,0.4271,0.4857,0.1498,0.0,0.0,0.0,0.0,0.0,0.0,0.0,0.0,0.0,0.0,0.0,0.0,0.0,0.0,0.0,0.0,0.0,0.0,0.0,0.0,0.0,0.0,0.0,0.0,0.0,0.0,0.0,0.0,0.0,0.0,0.0,0.0,0.0,0.0,0.0,0.0,0.0,0.0,0.0,0.0,0.0,0.0,0.0,0.0,0.0,0.0,0.0,0.0,0.0,0.0,0.0,0.0,0.0,0.0,0.0,0.0,0.0,0.0,0.0,0.0,0.0,0.0,0.0,0.0,0.0,0.0,0.0,0.0,0.0,0.0,0.0,0.0,0.0,0.0,0.0,0.0,0.0,0.0,0.0,0.0,0.0,0.0,0.0,0.0,0.0,0.0,0.0,0.0,0.0,0.0,0.0,0.0,0.0,0.0,0.0,0.0,0.0,0.0,0.0112,0.0,0.0,0.0,0.0,0.0,0.0,0.0,0.0809,0.2545,0.1762,0.3675,0.7864,0.3567,0.1546,0.1309,0.0357,0.0,0.0,0.0,0.0,0.0,0.0,0.0,0.0,0.0,0.0,0.0,0.0,0.0,0.0,0.0,0.0,0.0,0.0,0.0,0.0,0.0,0.0,0.0,0.0,0.0,0.0,0.0,0.0,0.0,0.0,0.0,0.0,0.0,0.0,0.0,0.0,0.0,0.0,0.0,0.0,0.0,0.0,0.0,0.0,0.0,0.0,0.0,0.0,0.0,0.0,0.0,0.0,0.0,0.0,0.0,0.0,0.0,0.0,0.0,0.0,0.0,0.0,0.0,0.0,0.0,0.0,0.0,0.0,0.0,0.0,0.0,0.0,0.0,0.0,0.0,0.0,0.0,0.0,0.0,0.0,0.0,0.0,0.0,0.0,0.0,0.0,0.0,0.0,0.0,0.0,0.0,0.0,0.0,0.5278,0.5953,0.0336,0.0,0.0,0.0,0.0,0.0,0.0,0.0,0.3176,0.9235,0.6451,0.5283,0.5646,0.6077,0.5872,0.4899,0.1471,0.0,0.0,0.0,0.0,0.0,0.0,0.0,0.0,0.0,0.0,0.0,0.0,0.0,0.0,0.0,0.0,0.0,0.0,0.0,0.0,0.0,0.0,0.0,0.0,0.0,0.0,0.0,0.0,0.0,0.0,0.0,0.0,0.0,0.0,0.0,0.0,0.0,0.0,0.0,0.0,0.0,0.0,0.0,0.0,0.0,0.0,0.0,0.0,0.0,0.0,0.0,0.0,0.0,0.0,0.0,0.0,0.0,0.0,0.0,0.0,0.0,0.0,0.0,0.0,0.0,0.0,0.0,0.0,0.0,0.0,0.0,0.0,0.0,0.0,0.0,0.0,0.0,0.0,0.0,0.0,0.0,0.0,0.0,0.0,0.0,0.0,0.0,0.0,0.0,0.0,0.3477,0.4151,0.0336,0.1922,0.3873,0.5606,0.2072,0.1971,0.6201,0.6627,0.5831,0.3458,0.3524,0.4668,0.7016,0.8002,0.8699,0.8824,0.9123,0.9142,0.8764,0.7486,0.5575,0.3537,0.3503,0.2096,0.0,0.0,0.0,0.0,0.0,0.0,0.0,0.0,0.0,0.0,0.0,0.0,0.0,0.0,0.0,0.0,0.0,0.0,0.0,0.0,0.0,0.0,0.0,0.0,0.0,0.0,0.0,0.0,0.0,0.0,0.0,0.0,0.0,0.0,0.0,0.0,0.0,0.0,0.0,0.0,0.0,0.0,0.0,0.0,0.0,0.0,0.0,0.0,0.0,0.0,0.0,0.0,0.0,0.0,0.0,0.0,0.0,0.0,0.0,0.0,0.0,0.0,0.0,0.0,0.0,0.0,0.0,0.0,0.0,0.0,0.0,0.0,0.0,0.0,0.0,0.0,0.0,0.0,0.0,0.0,0.0,0.0784,0.2802,0.3026,0.2241,0.0224,0.3602,0.5092,0.3169,0.2177,0.3819,0.8878,0.4826,0.4157,0.8158,0.9774,0.949,0.7271,0.7161,0.7098,0.7093,0.9416,1.0568,1.0746,1.0795,1.085,1.0899,1.0774,0.9425,0.7276,0.7285,0.5896,0.3608,0.2294,0.1016,0.0,0.0,0.0,0.0,0.0,0.0,0.0,0.0,0.0,0.0,0.0,0.0,0.0,0.0,0.0,0.0,0.0,0.0,0.0,0.0,0.0,0.0,0.0,0.0,0.0,0.0,0.0,0.0,0.0,0.0,0.0,0.0,0.0,0.0,0.0,0.0,0.0,0.0,0.0,0.0,0.0,0.0,0.0,0.0,0.0,0.0,0.0,0.0,0.0,0.0,0.0,0.0,0.0,0.0,0.0,0.0,0.0,0.0,0.0,0.0,0.0,0.0,0.0,0.0,0.0,0.0,0.0,0.0,0.0,0.0,0.0,0.0,0.0,0.0,0.0,0.0,0.0,0.0112,0.2354,0.7997,0.8798,0.6634,0.0894,0.0341,0.2641,0.8359,0.6429,0.6359,0.9628,0.7898,0.6413,0.5533,0.8647,1.0468,1.0756,1.0763,1.0621,1.0472,1.0616,1.0747,1.0738,1.0887,1.1029,1.1165,1.1054,1.1067,1.1067,1.1094,1.1246,1.0763,0.6985,0.3475,0.0387,0.0258,0.0129,0.0,0.0,0.0,0.0,0.0,0.0,0.0,0.0,0.0,0.0,0.0,0.0,0.0,0.0,0.0,0.0,0.0,0.0,0.0,0.0,0.0,0.0,0.0,0.0,0.0,0.0,0.0,0.0,0.0,0.0,0.0,0.0,0.0,0.0,0.0,0.0,0.0146,0.0438,0.0146,0.0,0.0,0.0,0.0,0.0,0.0,0.0,0.0,0.0,0.0,0.0,0.0,0.0,0.0,0.0,0.0,0.0,0.0,0.0,0.0,0.0,0.0,0.0,0.0,0.0,0.0,0.0,0.0,0.0,0.0,0.0,0.0,0.0,0.0,0.0,0.3701,0.5502,0.2802,0.6468,0.871,0.7209,0.6944,0.6686,0.6419,0.6253,0.7322,1.0067,0.9568,0.9261,0.9034,1.0075,1.0616,1.0754,1.0864,1.0833,1.0928,1.1104,1.1009,1.1043,1.1084,1.1124,1.1165,1.1172,1.1172,1.1179,1.1185,1.1185,1.1034,1.0067,0.9047,0.7805,0.5188,0.2458,0.0,0.0,0.0,0.0,0.0,0.0,0.0,0.0,0.0,0.0,0.0,0.0,0.0,0.0,0.0,0.0,0.0,0.0,0.0,0.0,0.0,0.0,0.0,0.0,0.0,0.0,0.0,0.0,0.0,0.0,0.0,0.0,0.0,0.0,0.0,0.0,0.2398,0.8571,0.3448,0.0,0.0,0.0,0.0,0.0,0.0,0.0,0.0,0.0,0.0,0.0,0.0,0.0,0.0,0.0,0.0,0.0,0.0,0.0,0.0,0.0,0.0,0.0,0.0,0.0,0.0,0.0,0.0,0.0,0.0,0.0,0.0,0.0,0.0907,0.3403,0.4538,0.4761,0.3847,0.597,0.8159,0.9669,0.9662,0.9055,0.7601,0.7954,0.8812,1.0202,1.0337,1.0432,1.0487,1.0629,1.0772,1.0907,1.0995,1.1084,1.1165,1.1165,1.1199,1.126,1.126,1.1294,0.0,1.1355,1.1355,1.1355,1.1355,1.1355,0.0,0.0,0.0,0.0,0.0,0.4762,0.0,0.0,0.0,0.0,0.0,0.0,0.0,0.0,0.0,0.0,0.0,0.0,0.0,0.0,0.0,0.0,0.0,0.0,0.0,0.0,0.0,0.0,0.0,0.0,0.0,0.4599,0.2361,0.1179,0.4741,0.5191,0.4607,0.0,0.2691,0.2698,0.2565,0.2568,0.4683,0.9553,0.6962,0.0,0.0,0.0,0.0,0.0,0.0,0.0,0.0,0.0,0.0,0.0,0.0,0.0,0.0,0.0,0.0,0.0,0.0,0.0,0.0,0.0,0.0,0.0,0.0,0.0,0.0,0.0,0.0,0.0,0.0,0.0,0.0,0.0,0.1957,0.7657,0.4287,0.3125,0.8456,0.6788,0.6296,0.9587,0.9836,0.9978,1.028,1.0417,1.05,1.0513,0.0,0.0,0.0,0.0,1.1043,1.1185,1.1192,1.1199,1.1212,1.1212,1.1287,1.1416,1.1416,1.1491,1.1619,1.1619,1.1619,1.1619,1.1619,1.1619,1.1599,1.1208,1.1127,1.1294,1.1208,0.6641,0.0,0.0,0.0,0.0,0.0,0.0,0.0,0.0,0.0,0.0,0.0,0.0,0.0,0.0,0.0,0.0,0.0,0.0,0.0294,0.119,0.1341,0.1345,0.0755,0.0757,0.3031,1.0515,0.6016,0.3741,1.0787,1.2196,0.0,0.741,0.6954,0.6958,0.697,0.0,0.0,0.697,1.0347,1.0956,0.7256,0.2565,0.0,0.0,0.0,0.0,0.0,0.0,0.0,0.0,0.0,0.0,0.0,0.0,0.0,0.0,0.0,0.0,0.0,0.0,0.0,0.0,0.0,0.0,0.0,0.0,0.0,0.0,0.0,0.0,0.0,0.0,0.1385,0.5137,0.7329,0.9023,1.0249,0.7987,0.7347,0.9992,1.0252,1.0263,1.0412,1.0561,1.0697,1.0819,1.0955,0.0,1.1077,1.1104,1.1192,1.1348,1.1348,1.1409,1.1531,0.0,0.0,1.1572,1.1572,1.1592,1.1619,1.1619,1.1619,1.1619,1.1619,1.1626,1.164,1.1565,1.1545,1.1259,0.9231,0.6921,0.4181,0.1154,0.0,0.0,0.0,0.0,0.0,0.0,0.0,0.0,0.0,0.0,0.0,0.0,0.0,0.0,0.0,0.0,0.1805,0.8624,1.0005,0.9086,0.5732,0.5127,0.56,0.7193,0.899,0.9543,0.7707,1.0306,1.2203,1.1378,1.1237,1.1287,1.1256,1.1256,1.125,1.1268,1.207,1.2165,1.1396,0.425,0.0,0.0,0.0,0.0,0.0,0.0,0.0,0.0,0.0,0.0,0.0,0.0,0.0,0.0,0.0,0.0,0.0,0.0,0.0,0.0,0.0,0.0,0.0,0.0,0.0,0.0,0.0,0.0,0.0,0.3067,0.5988,0.76,0.9322,1.0059,0.8818,0.857,0.8986,1.0424,1.0555,1.0561,1.0711,1.086,1.0975,1.105,1.1124,1.1199,1.1274,1.1274,1.1348,1.1504,1.1504,1.1545,1.1619,1.1619,1.1653,1.1728,1.1728,1.1769,1.1843,1.1843,1.1843,1.1843,1.1843,1.185,1.1857,1.1843,1.1769,1.1523,1.0262,0.9551,0.8382,0.443,0.3109,0.2817,0.0742,0.0,0.0,0.0,0.0,0.0,0.0,0.0,0.09,0.5107,0.619,0.5761,0.3627,0.3172,0.4235,0.8545,1.1042,1.2013,1.0087,0.9634,0.9671,0.963,1.1378,1.1953,0.9949,1.1355,1.2677,1.2814,1.2828,1.2705,1.2793,1.2786,1.2786,1.28,1.2655,1.2635,1.2554,0.8618,0.6203,0.6319,0.2298,0.0,0.0,0.0,0.0,0.0,0.0,0.0,0.0,0.0,0.0,0.0,0.0,0.0,0.0,0.0,0.0,0.0,0.0,0.0,0.0,0.0,0.0,0.0,0.0,0.0,0.0,0.5964,1.0725,1.0659,1.0496,0.964,0.763,0.9184,1.0555,1.0726,1.0704,1.0826,1.0982,1.1124,1.1206,1.1206,1.1233,1.1307,1.143,1.1436,1.1497,1.1619,1.1647,1.166,1.166,1.1687,1.1769,1.1877,1.1877,1.1945,1.206,1.206,1.206,1.206,1.206,1.206,1.206,1.206,1.1945,1.1789,1.2058,1.21,1.1663,0.8576,0.754,0.6943,0.347,0.1811,0.1207,0.121,0.1211,0.1211,0.1211,0.1213,0.2731,0.9602,1.1947,1.1656,0.8398,0.7625,0.765,0.7586,1.0274,1.2725,1.2965,1.3013,1.3047,1.301,1.303,1.2983,1.2847,1.2827,1.2861,1.2949,1.2963,1.2963,1.2969,1.2963,1.2963,1.2969,1.299,1.2849,1.2701,1.1801,1.1378,1.127,0.5642,0.1706,0.0,0.0,0.0,0.0,0.0,0.0,0.0,0.0,0.0,0.8863,0.8654,0.832,0.7979,0.5935,0.4024,0.0,0.0,0.0,0.0,0.0,0.0,0.0,0.0,0.0,0.0,0.6048,1.0674,1.0665,1.0684,1.0534,1.0208,1.0555,1.074,1.0873,1.0914,1.0982,1.1124,1.128,1.1362,1.1362,1.1497,1.1572,1.1592,1.1592,1.1599,1.1619,1.1742,1.1809,1.1809,1.1945,1.202,1.2033,1.2033,1.2047,1.206,1.206,1.206,1.206,1.206,1.206,1.206,1.206,1.2047,1.2026,1.204,1.221,1.2081,1.1632,1.1658,1.1684,1.1227,0.8615,0.5578,0.5578,0.5578,0.5578,0.5578,0.5622,0.5826,0.675,0.9773,1.2434,1.2233,1.2259,1.2285,1.2403,1.2762,1.3095,1.2942,1.2949,1.2949,1.2969,1.2969,1.2976,1.2822,1.2983,1.2983,1.2963,1.2963,1.2969,1.315,1.2976,1.2969,1.315,1.3157,1.3003,1.3003,0.923,0.6949,0.6938,0.9582,0.7625,0.0161,0.0,0.0,0.0,0.0,0.0,0.0,0.0,0.0,0.8954,0.885,0.0,0.0,0.7979,0.707,0.7086,0.6116,0.4211,0.0682,0.0,0.0,0.0,0.0,0.1341,0.0,0.6986,0.8375,1.0439,1.0774,1.0792,1.0846,1.088,1.0948,1.1063,1.1151,1.1233,1.1294,1.1436,1.1525,1.1525,1.1586,1.1619,1.1619,1.1701,1.1742,1.1742,1.1891,1.1965,1.1965,1.2033,1.2108,1.2196,1.2196,1.2237,1.2318,1.2318,1.2318,1.2318,1.2318,1.2372,1.2447,1.2447,1.2508,1.2556,1.2291,1.2203,1.2223,1.2305,1.2498,1.2512,1.2532,1.1281,0.9889,1.0125,1.0153,1.0169,1.0241,1.0139,1.0172,1.0318,1.1488,1.2847,1.2915,1.2915,1.3082,1.315,1.299,1.2996,1.3071,1.3085,1.3119,1.3227,1.3247,1.3254,1.3097,1.3173,1.3132,1.3207,1.3214,1.322,1.3234,1.322,1.322,1.3234,1.3254,1.3261,1.3261,1.1546,1.0356,1.0177,0.7026,0.5866,0.7166,0.2428,0.0,0.0,0.0,0.0,0.0,0.0,0.0,0.8947,0.0,0.0,0.8883,0.8239,0.7691,0.7714,0.8292,0.7685,0.3359,0.1177,0.0599,0.2544,0.296,0.427,0.8563,0.7925,0.7772,1.0373,1.0826,1.0975,1.1063,1.1165,1.124,1.1287,1.1348,1.1409,1.145,1.1558,1.1619,1.1619,1.1653,1.1681,1.1681,1.1816,1.1898,1.1898,1.2047,1.2128,1.2128,1.2162,1.2244,1.2352,1.2393,1.2488,1.263,1.263,1.263,1.263,1.263,1.2691,1.2793,1.2793,1.2861,1.2922,1.2596,1.2474,1.2488,1.2589,1.263,1.263,1.2657,1.2664,1.2691,1.2979,1.302,1.304,1.299,1.3024,1.3017,1.2996,1.315,1.2996,1.2883,1.3037,1.3037,1.3105,1.3098,1.3112,1.3214,1.3234,1.3295,1.3471,1.3498,1.3512,1.3553,1.3444,1.3383,1.3458,1.3498,1.3519,1.3519,1.3519,1.3519,1.3519,1.3546,1.3539,1.3505,1.3458,1.2886,1.1971,0.5431,0.4101,0.888,0.3108,0.0,0.0,0.0,0.0,0.0,0.0,0.0,0.0,0.0,0.887,0.889,0.6802,0.4686,0.4686,0.6864,0.8877,0.8636,0.3984,0.2096,0.9057,1.0433,0.9355,0.6023,0.8405,1.0636,1.0928,1.0962,1.1056,1.1341,1.1382,1.1443,0.0,1.1477,1.145,1.1599,1.1619,1.1619,1.1619,1.1748,1.1823,1.1823,1.1972,1.2054,1.2054,1.221,1.2284,1.2284,1.242,1.2488,1.2501,1.2651,1.28,1.2949,1.2949,1.2949,1.2949,1.2949,1.2949,1.2956,1.2956,1.2956,1.2963,1.2942,1.2942,1.2942,1.2942,1.2949,1.2949,1.2949,1.2949,1.2949,1.2956,1.2956,1.2956,1.2963,1.2963,1.2963,1.2963,1.2963,1.2996,1.3132,1.3166,1.3207,1.3356,1.339,1.339,1.3397,1.3397,1.3444,1.36,1.362,1.3668,1.381,1.3824,1.377,1.3641,1.3743,1.3824,1.3824,1.3824,1.3824,1.3824,1.3831,1.377,1.3634,1.3479,1.2047,0.9198,0.7361,0.4519,0.0503,0.0166,0.0,0.0,0.0,0.0,0.0,0.0,0.0,0.0,0.0,0.8445,0.6455,0.6744,0.6429,0.2449,0.2245,0.3,0.3032,0.1359,0.2136,0.9317,1.067,1.0273,0.9074,1.0022,1.0867,1.0948,1.1124,1.128,1.1382,1.1484,0.0,0.0,0.0,0.0,1.1613,1.1708,1.1762,1.1762,1.1904,1.1986,1.1986,1.2135,1.221,1.221,1.2359,1.2481,1.2583,1.2732,1.2807,1.2807,1.2861,1.2908,1.2963,1.2963,1.2963,1.2963,1.2963,1.3017,1.3105,1.3105,1.3166,1.3254,1.3254,1.3254,1.3227,1.303,1.2963,1.2963,1.2963,1.2963,1.2976,1.3071,1.3105,1.3125,1.3227,1.3254,1.3254,1.3254,1.3254,1.3268,1.3342,1.3342,1.337,1.3546,1.3573,1.358,1.3675,1.3695,1.3709,1.3763,1.377,1.3817,1.3973,1.3905,1.3824,1.3777,1.381,1.3838,1.3838,1.3838,1.3838,1.3838,1.3838,1.3817,1.377,1.3626,1.3094,1.2174,1.168,1.0656,0.9103,0.6145,0.3225,0.0,0.0,0.0,0.0,0.0,0.0,0.0,0.9116,0.8129,0.398,0.4372,0.4756,0.0832,0.0,0.0,0.0,0.0,0.18,0.7667,0.9907,1.0683,1.0816,1.0846,1.1002,1.109,1.1274,1.1409,1.1463,1.1558,0.0,0.0,0.0,0.0,1.1694,1.1782,1.1857,1.1911,1.206,1.2142,1.2142,1.2291,1.2393,1.2447,1.2535,1.2657,1.2813,1.2915,1.299,1.3037,1.3037,1.3064,1.3119,1.3119,1.3119,1.3119,1.3119,1.3173,1.3254,1.3254,1.3315,1.3403,1.3403,1.3403,1.3376,1.3186,1.3119,1.3119,1.3119,1.3119,1.3132,1.3227,1.3254,1.3275,1.337,1.3403,1.341,1.3464,1.3485,1.3498,1.3573,1.3573,1.3593,1.3715,1.3722,1.3729,1.3824,1.3838,1.3858,1.3912,1.3966,1.4041,1.4136,1.4068,1.4007,1.4007,1.4007,1.4007,1.4007,1.4007,1.4007,1.4007,1.4007,1.398,1.3926,1.3946,1.376,1.37,1.372,1.374,1.3926,1.1101,0.8113,0.5148,0.1715,0.0,0.0,0.0,0.0,0.8974,0.9104,0.7791,0.1769,0.0119,0.0,0.0,0.0,0.0,0.0,0.0259,0.158,0.0,0.0,1.0699,1.0934,1.0955,1.1063,1.1348,1.1396,1.1457,0.0,0.0,0.0,0.0,0.0,0.0,1.185,0.0,1.1918,1.2067,1.2216,1.2305,1.2311,1.244,1.2589,1.2739,1.2752,1.2827,1.2969,1.2983,1.3057,1.3186,1.3186,1.3261,1.3403,1.3403,1.3403,1.3403,1.3403,1.3403,1.341,1.341,1.3417,1.3424,1.3424,1.3424,1.3424,1.3424,1.341,1.3403,1.341,1.341,1.341,1.3424,1.3424,1.3424,1.3424,1.3424,1.3458,1.36,1.3641,1.3675,1.381,1.3838,1.3844,1.3851,1.3851,1.3858,1.3865,1.3865,1.3912,1.4055,1.4204,1.4299,1.4299,1.4299,1.4299,1.4299,1.4299,1.4299,1.4299,1.4299,1.4299,1.4299,1.4299,1.4238,1.4095,1.4082,1.4021,1.3871,1.3865,1.3878,1.4091,1.4091,1.4125,1.4361,0.5033,0.0347,0.0,0.0,0.0,0.956,0.8324,0.6584,0.424,0.1846,0.0,0.0,0.0,0.0,0.0,0.4196,0.7417,0.0,0.0,0.0,1.0928,1.1036,0.0,1.1362,1.1491,0.0,0.0,0.0,1.166,1.1769,1.1809,0.0,0.0,1.2176,1.2189,1.223,1.2372,1.2501,1.2617,1.2651,1.2745,1.2901,1.3003,1.3078,1.3119,1.3234,1.3308,1.3342,1.3342,1.3363,1.3403,1.3403,1.3403,1.3403,1.3403,1.3464,1.3573,1.3573,1.3634,1.3729,1.3729,1.3729,1.3729,1.3729,1.3587,1.3417,1.3532,1.3573,1.3593,1.3695,1.3729,1.3729,1.3729,1.3729,1.3736,1.3777,1.3783,1.3797,1.3831,1.3838,1.3871,1.3987,1.4014,1.4048,1.4163,1.4183,1.4197,1.4238,1.4272,1.4299,1.4299,1.4299,1.4299,1.4299,1.4299,1.4299,1.4299,1.4299,1.4299,1.4299,1.4299,1.4285,1.4245,1.4245,1.4224,1.4183,1.4183,1.419,1.4197,1.4197,1.4163,1.427,0.9458,0.4705,0.0,0.0,0.0,0.97,0.8824,0.7691,0.7212,0.3508,0.0,0.0,0.0,0.0914,0.4079,0.7837,0.0,0.0,0.0,0.0,0.0,0.0,0.0,1.147,1.1565,1.1619,0.0,1.1674,0.0,1.1823,1.1952,1.2108,0.0,1.2291,1.2318,1.2379,1.2522,1.2637,1.2725,1.2793,1.2901,1.3051,1.32,1.3275,1.3275,1.3363,1.3403,1.3403,1.3403,1.3437,1.3498,0.0,1.3539,1.3593,1.3593,1.3648,1.3722,1.3722,1.377,1.3838,1.3838,1.3838,1.3838,1.3838,1.3729,1.3607,1.3695,1.3722,1.3736,1.3817,1.3838,1.3838,1.3838,1.3838,1.3858,1.3926,1.3939,1.396,1.4027,1.4041,1.4068,1.415,1.417,1.4197,1.4285,1.4299,1.4299,1.4299,1.4299,1.4299,1.4299,1.4353,1.4394,1.4394,1.434,1.4299,1.4299,1.4299,1.4299,1.4299,1.4299,1.4299,1.4299,1.4299,1.4299,1.4299,1.4299,1.4299,1.4299,1.4299,1.4278,1.4224,1.2419,0.9717,0.6153,0.4038,0.1933,0.9767,0.9542,0.9218,0.9645,0.5463,0.102,0.0258,0.0,0.1981,0.9162,0.0,1.0685,1.0765,0.0,1.1023,1.1145,0.0,1.1443,1.1599,1.1619,1.1619,1.1619,1.1742,1.1837,1.1857,1.2121,1.2298,1.2318,1.2338,1.24,1.2528,1.2657,1.2745,1.2786,1.2942,1.3078,1.32,1.3336,1.3403,1.3403,1.3403,1.341,1.3431,1.3431,1.3512,1.3654,0.0,0.0,1.3838,1.3838,1.3851,1.3871,1.3871,1.3885,1.3905,1.3905,1.3905,1.3905,1.3905,1.3905,1.3899,1.3878,1.3871,1.3871,1.3892,1.3905,1.3905,1.3905,1.3905,1.3933,1.4068,1.4102,1.4136,1.4272,1.4299,1.4299,1.4299,1.4299,1.4299,1.4299,1.4299,1.4306,1.4326,1.4326,1.4333,1.4353,1.4462,1.4543,1.4543,1.4434,1.436,1.436,1.436,1.436,1.436,1.436,1.436,1.436,1.436,1.436,1.436,1.436,1.4346,1.4326,1.4326,1.4333,1.4346,1.4346,1.436,1.4216,1.0026,0.5898,0.9774,0.7841,0.6398,0.9129,0.8916,0.6688,0.1181,0.0,0.0,0.0,0.0,1.0665,1.0758,1.0867,0.0,1.1138,0.0,0.0,0.0,0.0,1.1619,0.0,0.0,0.0,0.0,0.0,0.0,0.0,0.0,0.0,1.2691,1.2718,1.284,1.3085,1.3247,1.3336,1.3363,1.339,1.3403,1.3403,1.3403,1.3464,1.3587,1.3587,1.3668,1.3804,0.0,0.0,1.3838,1.3838,1.3912,1.4034,1.4034,1.4109,1.4217,1.4217,1.4217,1.4217,1.4217,1.4217,1.4197,1.4075,1.4034,1.4055,1.4183,1.4217,1.4217,1.4217,1.4217,1.4224,1.4251,1.4258,1.4265,1.4292,1.4299,1.4299,1.4299,1.4299,1.4299,1.4299,1.4299,1.434,1.4455,1.4475,1.4516,1.4645,1.4685,1.4699,1.4699,1.4679,1.4665,1.4665,1.4665,1.4665,1.4665,1.4665,1.4665,1.4665,1.4665,1.4665,1.4665,1.4665,1.4604,1.4475,1.4475,1.4421,1.4306,1.4306,1.4326,1.436,1.3445,1.2556,0.9787,0.8635,0.6958,0.5103,0.4674,0.3828,0.0665,0.0,0.0,0.0,0.0,1.0658,1.0744,0.0,0.0,0.0,0.0,0.0,0.0,0.0,0.0,0.0,0.0,0.0,0.0,0.0,0.0,0.0,0.0,0.0,1.2732,1.2874,1.3064,1.3288,1.3363,1.3403,1.3403,1.3403,1.3444,1.3519,1.3519,1.3593,1.3736,1.3736,1.3817,1.396,1.396,0.0,1.4082,1.4082,1.4122,1.419,1.419,1.4238,1.4299,1.4299,1.4299,1.4299,1.4299,1.4299,1.4285,1.4211,1.419,1.4204,1.4278,1.4299,1.4299,1.4299,1.4299,1.4299,1.4299,1.4299,1.4299,1.4299,1.4299,1.4299,1.4299,1.4299,1.4319,1.4394,1.4407,1.4455,1.4604,1.4631,1.4658,1.4726,1.4808,1.4862,1.4862,1.4923,1.4909,1.4753,1.474,1.474,1.474,1.474,1.474,1.474,1.474,1.474,1.474,1.474,1.4706,1.4631,1.4631,1.4597,1.4529,1.4529,1.4536,1.455,1.455,1.457,0.8049,0.7661,0.6502,0.1288,0.0,0.0,0.0,0.0,0.0,0.0,0.8205,1.0652,1.0731,0.0,0.0,0.0,0.0,0.0,0.0,0.0,0.0,0.0,0.0,0.0,0.0,0.0,0.0,0.0,0.0,0.0,1.2827,1.3078,1.3275,1.3397,1.3403,1.3417,1.3451,1.3451,1.3526,1.3675,1.3675,1.3749,1.3892,1.3892,1.3973,1.4122,1.4122,0.0,0.0,1.4299,1.4299,1.4299,1.4299,1.4299,1.4299,1.4299,1.4299,1.4299,1.4299,1.4299,1.4299,1.4299,1.4299,1.4299,1.4299,1.4299,1.4299,1.4299,1.4299,1.4299,1.4299,1.4299,1.4299,1.4299,1.4326,1.4346,1.4346,1.4373,1.4428,1.4536,1.4563,1.4611,1.476,1.4787,1.4801,1.4828,1.4936,1.5018,1.5018,1.5113,1.5092,1.4862,1.4835,1.4835,1.4835,1.4835,1.4835,1.4835,1.4835,1.4835,1.4835,1.4835,1.4821,1.4787,1.4787,1.4774,1.474,1.474,1.474,1.474,1.474,1.4753,0.2469,0.0883,0.0774,0.0129,0.0,0.0,0.0,0.0,0.0,0.4693,0.8205,1.0652,1.0731,0.0,0.0,0.0,0.0,0.0,0.0,0.0,0.0,0.0,0.0,0.0,0.0,0.0,0.0,0.0,0.0,0.0,0.0,1.3288,1.339,1.3403,1.3403,1.3464,1.3607,1.3607,1.3682,1.3824,1.3824,1.3899,1.4048,1.4048,1.4136,1.4278,0.0,0.0,0.0,1.4299,1.4299,1.4299,1.4299,1.4299,1.4299,1.4299,1.4299,1.4299,1.4299,1.4299,1.4299,1.4299,1.4299,1.4299,1.4299,1.4299,1.4299,1.4299,1.4299,1.4299,1.4299,1.4299,1.4299,1.4299,1.4401,1.4489,1.4489,1.4604,1.4706,1.4719,1.4719,1.4767,1.4923,1.495,1.4991,1.512,1.5153,1.516,1.516,1.5174,1.5174,1.5147,1.514,1.514,1.514,1.514,1.514,1.514,1.514,1.514,1.514,1.514,1.5079,1.495,1.495,1.4882,1.474,1.474,1.474,1.474,1.474,1.474,0.1729,0.0,0.0,0.0,0.0,0.1066,0.5513,0.0,0.0,0.7379,0.9698,1.0652,1.0731,0.0,0.0,0.0,0.0,0.0,0.0,0.0,0.0,0.0,0.0,0.0,0.0,0.0,0.0,0.0,0.0,0.0,0.0,1.337,1.3403,1.3403,1.3492,1.3566,1.3627,1.3715,1.3831,1.398,1.398,1.4061,1.4211,1.4211,1.4245,1.4299,0.0,0.0,0.0,1.4299,1.4299,1.4299,1.4299,1.4299,1.4299,1.4299,1.4299,1.4299,1.4299,1.4299,1.4299,1.4299,1.4299,1.4299,1.4299,1.4299,1.4299,1.4299,1.4299,1.4299,1.4299,1.4367,1.4448,1.4543,1.4611,1.4652,1.4652,1.4699,1.4767,1.4862,1.4875,1.4923,1.5072,1.5099,1.512,1.5174,1.5181,1.5181,1.5181,1.5181,1.5181,1.5181,1.5181,1.5181,1.5181,1.5181,1.5181,1.5181,1.5181,1.5181,1.5181,1.5181,1.5153,1.5099,1.5099,1.5065,1.5004,1.5004,1.5004,1.5004,1.5004,1.5004,0.1235,0.0,0.0,0.0,0.0,0.1323,0.0,0.0,0.0,0.8323,0.9965,1.0652,1.0731,1.0962,0.0,0.0,0.0,1.1619,0.0,0.0,0.0,0.0,0.0,0.0,0.0,0.0,0.0,0.0,0.0,0.0,0.0,1.3403,1.3424,1.3464,1.3573,1.3675,1.3756,1.3858,1.3987,1.4136,1.4136,1.4197,1.4299,1.4299,1.4299,1.4299,0.0,0.0,0.0,1.4299,1.4299,1.4299,1.4299,1.4299,1.4299,1.4299,1.4299,1.4299,1.4299,1.4299,1.4299,1.4299,1.4299,1.4299,1.4299,1.4299,1.4299,1.4299,1.4333,1.4373,1.4421,1.4502,1.4604,1.4713,1.4774,1.4808,1.4808,1.4841,1.4903,1.5011,1.5031,1.5065,1.5167,1.5181,1.5181,1.5181,1.5181,1.5181,1.5181,1.5181,1.5181,1.5181,1.5181,1.5181,1.5181,1.5181,1.5181,1.5181,1.5181,1.5181,1.5181,1.5181,1.5181,1.5181,1.5181,1.5181,1.5181,1.5181,1.5181,1.5181,1.5181,1.5181,0.0,0.0,0.0,0.0,0.0,0.0,0.0,0.0,0.0,0.6176,0.8205,1.0652,1.0731,1.0962,1.1165,1.1165,0.0,0.0,0.0,0.0,0.0,0.0,0.0,0.0,0.0,0.0,0.0,0.0,0.0,0.0,0.0,1.3403,1.3471,1.362,1.3627,1.377,1.4061,1.4068,1.4143,1.4299,1.4299,1.4299,1.4299,1.4299,1.4299,0.0,0.0,0.0,0.0,1.4299,1.4299,1.4299,1.4299,1.4299,1.4299,1.4299,1.4299,1.4299,1.4299,1.4299,1.4299,1.4299,1.4299,1.4299,1.4299,1.4299,1.4299,1.4299,1.4401,1.4543,1.4699,1.4733,1.474,1.474,1.4855,1.497,1.497,1.5079,1.5181,1.5181,1.5181,1.5181,1.5181,1.5181,1.5181,1.5181,1.5181,1.5181,1.5181,1.5181,1.5181,1.5181,1.5181,1.5181,1.5181,1.5181,1.5181,1.5181,1.5181,1.5181,1.5181,1.5181,1.5181,1.5181,1.5181,1.5181,1.5181,1.5181,1.5181,1.5181,1.5181,1.5181,0.0,0.0,0.0,0.0,0.0,0.0,0.0,0.0,0.0,0.0,0.8739,1.0652,1.0731,1.0962,1.1165,1.1165,1.1416,0.0,0.0,0.0,0.0,0.0,0.0,0.0,0.0,0.0,0.0,0.0,0.0,0.0,0.0,1.3498,1.358,1.3627,1.3722,1.3871,1.4068,1.4177,1.4251,1.4299,1.4299,1.4299,1.4299,1.4299,0.0,0.0,0.0,0.0,0.0,1.4299,1.4299,1.4299,1.4299,1.4299,1.4299,1.4299,1.4299,1.4299,1.4299,1.4299,1.4299,1.4299,1.4367,1.4441,1.4441,1.4441,1.4468,1.457,1.4631,1.4706,1.4855,1.4896,1.4923,1.5018,1.5079,1.5113,1.5113,1.5153,1.5181,1.5181,1.5181,1.5181,1.5181,1.5181,1.5181,1.5181,1.5181,1.5181,1.5181,1.5181,1.5181,1.5181,1.5181,1.5181,1.5181,1.5181,1.5181,1.5181,1.5181,1.5181,1.5181,1.5181,1.5181,1.5181,1.5181,1.5181,1.5181,1.5181,1.5181,1.5181,1.5181,1.5181,0.0,0.0,0.0,0.0,0.0,0.0,0.0,0.0,0.0,0.0,0.0,0.0,1.0731,1.0962,1.1165,1.1165,1.1416,0.0,0.0,0.0,0.0,0.0,0.0,0.0,0.0,0.0,0.0,0.0,0.0,0.0,0.0,0.0,1.3682,1.379,1.3885,1.4,1.4156,1.4251,1.4299,1.4299,1.4299,1.4299,1.4299,1.4299,0.0,0.0,0.0,0.0,0.0,1.4299,1.4299,1.4299,1.4299,1.4299,1.4299,1.4299,1.4299,1.4299,1.4299,1.4299,1.4306,1.436,1.4475,1.4611,1.4665,1.4645,1.4631,1.4787,1.4828,1.4862,1.5011,1.5052,1.5072,1.516,1.5181,1.5181,1.5181,1.5181,1.5181,1.5181,1.5181,1.5181,1.5181,1.5181,1.5181,1.5181,1.5181,1.5181,1.5181,1.5181,1.5181,1.5181,1.5181,1.5181,1.5181,1.5181,1.5181,1.5181,1.5181,1.5181,1.5181,1.5181,1.5181,1.5181,1.5181,1.5181,1.5181,1.5181,1.5181,1.5181,1.5181,1.5181,0.0,0.0,0.0,0.0,0.0,0.0,0.0,0.0,0.0,0.0,0.0,0.0,1.0738,1.0968,1.1165,1.1179,1.1423,0.0,0.0,0.0,0.0,0.0,0.0,0.0,0.0,0.0,0.0,0.0,0.0,0.0,0.0,0.0,1.3777,1.4061,1.4082,1.4156,1.4299,1.4299,1.4299,1.4299,1.4299,1.4299,1.4299,1.4299,0.0,0.0,0.0,0.0,0.0,1.4299,1.4299,1.4299,1.4299,1.4299,1.4299,1.4299,1.4299,1.4299,1.4299,1.4306,1.434,1.4496,1.4638,1.4787,1.4936,1.4875,1.4787,1.4943,1.4984,1.5018,1.5147,1.5181,1.5181,1.5181,1.5181,1.5181,1.5181,1.5181,1.5181,1.5181,1.5181,1.5181,1.5181,1.5181,1.5181,1.5181,1.5181,1.5181,1.5181,1.5181,1.5181,1.5181,1.5181,1.5181,1.5181,1.5181,1.5181,1.5181,1.5181,1.5181,1.5181,1.5181,1.5181,1.5181,1.5181,1.5181,1.5181,1.5181,1.5181,1.5181,1.5181,1.5181,0.0,0.0,0.0,0.0,0.0,0.0,0.0,0.0,0.0,0.0,0.0,0.0,1.088,1.1043,1.1199,1.1321,1.1497,0.0,0.0,0.0,0.0,0.0,0.0,0.0,0.0,0.0,0.0,0.0,0.0,0.0,0.0,0.0,1.3878,1.4068,1.4183,1.4265,1.4299,1.4299,1.4299,1.4299,1.4299,1.4299,1.4299,1.4299,0.0,0.0,0.0,0.0,1.4299,1.4299,1.4299,1.4299,1.4299,1.4299,1.4299,1.4299,1.4299,1.4299,1.4299,1.4373,1.4509,1.4774,1.4889,1.4943,1.5086,1.5031,1.495,1.5092,1.5133,1.514,1.5174,1.5181,1.5181,1.5181,1.5181,1.5181,1.5181,1.5181,1.5181,1.5181,1.5181,1.5181,1.5181,1.5181,1.5181,1.5181,1.5181,1.5181,1.5181,1.5181,1.5181,1.5181,1.5181,1.5181,1.5181,1.5181,1.5181,1.5181,1.5181,1.5181,1.5181,1.5181,1.5181,1.5181,1.5181,1.5181,1.5181,1.5181,1.5181,1.5181,1.5181,1.5181,0.0,0.0,0.0,0.0,0.0,0.0,0.0,0.0,0.0,0.0,0.0,0.0,1.0934,0.0,0.0,0.0,0.0,0.0,0.0,0.0,0.0,0.0,0.0,0.0,0.0,0.0,0.0,0.0,0.0,0.0,0.0,0.0,1.3946,1.417,1.4258,1.4299,1.4299,1.4299,1.4299,1.4299,1.4299,1.4299,1.4299,1.4299,0.0,0.0,0.0,0.0,1.4299,1.4299,1.4299,1.4299,1.4299,1.4299,1.4299,1.4299,1.4299,1.4299,1.4299,1.4441,1.4658,1.4896,1.5018,1.5079,1.516,1.5126,1.5086,1.516,1.5181,1.5181,1.5181,1.5181,1.5181,1.5181,1.5181,1.5181,1.5181,1.5181,1.5181,1.5181,1.5181,1.5181,1.5181,1.5181,1.5181,1.5181,1.5181,1.5181,1.5181,1.5181,1.5181,1.5181,1.5181,1.5181,1.5181,1.5181,1.5181,1.5181,1.5181,1.5181,1.5181,1.5181,1.5181,1.5181,1.5181,1.5181,1.5181,1.5181,1.5181,1.5181,1.5181,1.5181,0.0,0.0,0.0,0.0,0.0,0.0,0.0,0.0,0.0,0.0,0.0,0.0,0.0,0.0,0.0,0.0,0.0,0.0,0.0,0.0,0.0,0.0,0.0,0.0,0.0,0.0,0.0,0.0,0.0,0.0,0.0,0.0,0.0,1.4292,1.4299,1.4299,1.4299,1.4299,1.4299,1.4299,1.4299,1.4299,1.4299,1.4299,0.0,0.0,0.0,0.0,1.4299,1.4299,1.4299,1.4299,1.4299,1.4299,1.4299,1.4299,1.4299,1.4306,1.4353,1.455,1.4801,1.495,1.5086,1.5181,1.5181,1.5181,1.5181,1.5181,1.5181,1.5181,1.5181,1.5181,1.5181,1.5181,1.5181,1.5181,1.5181,1.5181,1.5181,1.5181,1.5181,1.5181,1.5181,1.5181,1.5181,1.5181,1.5181,1.5181,1.5181,1.5181,1.5181,1.5181,1.5181,1.5181,1.5181,1.5181,1.5181,1.5181,1.5181,1.5181,1.5181,1.5181,1.5181,1.5181,1.5181,1.5181,1.5181,1.5181,1.5181,1.5181,1.5181,1.5181,0.0,0.0,0.0,0.0,0.0,0.0,0.0,0.0,0.0,0.0,0.0,0.0,0.0,0.0,0.0,0.0,0.0,0.0,0.0,0.0,0.0,0.0,0.0,0.0,0.0,0.0,0.0,0.0,0.0,0.0,0.0,0.0,0.0,1.4292,1.4299,1.4299,1.4299,1.4299,1.4299,1.4299,1.4299,1.4299,1.4299,1.4299,1.4299,0.0,0.0,1.4299,1.4299,1.4299,1.4299,1.4299,1.4299,1.4299,1.4299,1.4299,1.4299,1.4333,1.4584,1.4787,1.4957,1.5106,1.5167,1.5181,1.5181,1.5181,1.5181,1.5181,1.5181,1.5181,1.5181,1.5181,1.5181,1.5181,1.5181,1.5181,1.5181,1.5181,1.5181,1.5181,1.5181,1.5181,1.5181,1.5181,1.5181,1.5181,1.5181,1.5181,1.5181,1.5181,1.5181,1.5181,1.5181,1.5181,1.5181,1.5181,1.5181,1.5181,1.5181,1.5181,1.5181,1.5181,1.5181,1.5181,1.5181,1.5181,1.5181,1.5181,1.5181,1.5181,1.5181,1.5181,0.0,0.0,0.0,0.0,0.0,0.0,0.0,0.0,0.0,0.0,0.0,0.0,0.0,0.0,0.0,0.0,0.0,0.0,0.0,0.0,0.0,0.0,0.0,0.0,0.0,0.0,0.0,0.0,0.0,0.0,0.0,0.0,0.0,0.0,1.4299,1.4299,1.4299,1.4299,1.4299,1.4299,1.4299,1.4299,1.4299,1.4299,1.4299,1.4299,0.0,1.4299,1.4299,1.4299,1.4299,1.4299,1.4299,1.4299,1.4299,1.4299,1.4346,1.4448,1.4665,1.4841,1.4991,1.514,1.5181,1.5181,1.5181,1.5181,1.5181,1.5181,1.5181,1.5181,1.5181,1.5181,1.5181,1.5181,1.5181,1.5181,1.5181,1.5181,1.5181,1.5181,1.5181,1.5181,1.5181,1.5181,1.5181,1.5181,1.5181,1.5181,1.5181,1.5181,1.5181,1.5181,1.5181,1.5181,1.5181,1.5181,1.5181,1.5181,1.5181,1.5181,1.5181,1.5181,1.5181,1.5181,1.5181,1.5181,1.5181,1.5181,1.5181,1.5181,1.5181,1.5181,0.8742,0.0,0.0,0.0,0.0,0.0,0.0,0.0,0.0,0.0,0.0,0.0,0.0,0.0,0.0,0.0,0.0,0.0,0.0,0.0,0.0,0.0,0.0,0.0,0.0,0.0,0.0,0.0,0.0,0.0,0.0,0.0,0.0,0.0,1.4299,1.4299,1.4299,1.4299,1.4299,1.4299,1.4299,1.4299,1.4299,1.4299,1.4299,1.4299,1.4299,1.4299,1.4299,1.4299,1.4299,1.4299,1.4299,1.4299,1.4306,1.434,1.4441,1.4584,1.474,1.4896,1.5038,1.5147,1.5181,1.5181,1.5181,1.5181,1.5181,1.5181,1.5181,1.5181,1.5181,1.5181,1.5181,1.5181,1.5181,1.5181,1.5181,1.5181,1.5181,1.5181,1.5181,1.5181,1.5181,1.5181,1.5181,1.5181,1.5181,1.5181,1.5181,1.5181,1.5181,1.5181,1.5181,1.5181,1.5181,1.5181,1.5181,1.5181,1.5181,1.5181,1.5181,1.5181,1.5181,1.5181,1.5181,1.5181,1.5181,1.5181,1.5181,1.5181,1.5181,1.5181,0.8742,1.0635,0.0,0.0,0.0,0.0,0.0,0.0,0.0,0.0,0.0,0.0,0.0,0.0,0.0,0.0,0.0,0.0,0.0,0.0,0.0,0.0,0.0,0.0,0.0,0.0,0.0,0.0,0.0,0.0,0.0,0.0,0.0,0.0,0.0,1.4299,1.4299,1.4299,1.4299,1.4299,1.4299,1.4299,1.4299,1.4299,1.4299,1.4299,1.4299,1.4299,1.4299,1.4299,1.4299,1.4299,1.4299,1.4299,1.4319,1.4448,1.459,1.4746,1.4903,1.5052,1.5167,1.5181,1.5181,1.5181,1.5181,1.5181,1.5181,1.5181,1.5181,1.5181,1.5181,1.5181,1.5181,1.5181,1.5181,1.5181,1.5181,1.5181,1.5181,1.5181,1.5181,1.5181,1.5181,1.5181,1.5181,1.5181,1.5181,1.5181,1.5181,1.5181,1.5181,1.5181,1.5181,1.5181,1.5181,1.5181,1.5181,1.5181,1.5181,1.5181,1.5181,1.5181,1.5181,1.5181,1.5181,1.5181,1.5181,1.5181,1.5181,1.5181,1.5181,1.5181,0.9748,1.0465,0.0,0.0,0.0,0.0,0.0,0.0,0.0,0.0,0.0,0.0,0.0,0.0,0.0,0.0,0.0,0.0,0.0,0.0,0.0,0.0,0.0,0.0,0.0,0.0,0.0,0.0,0.0,0.0,0.0,0.0,0.0,0.0,0.0,1.4299,1.4299,1.4299,1.4299,1.4299,1.4299,1.4299,1.4299,1.4299,1.4299,1.4299,1.4299,1.4299,1.4299,1.4299,1.4299,1.4299,1.4299,1.4299,1.4319,1.4462,1.4611,1.476,1.4916,1.5065,1.5181,1.5181,1.5181,1.5181,1.5181,1.5181,1.5181,1.5181,1.5181,1.5181,1.5181,1.5181,1.5181,1.5181,1.5181,1.5181,1.5181,1.5181,1.5181,1.5181,1.5181,1.5181,1.5181,1.5181,1.5181,1.5181,1.5181,1.5181,1.5181,1.5181,1.5181,1.5181,1.5181,1.5181,1.5181,1.5181,1.5181,1.5181,1.5181,1.5181,1.5181,1.5181,1.5181,1.5181,1.5181,1.5181,1.5181,1.5181,1.5181,1.5181,1.5181,1.5181,1.0263,1.0479,0.0,0.0,0.0,0.0,0.0,0.0,0.0,0.0,0.0,0.0,0.0,0.0,0.0,0.0,0.0,0.0,0.0,0.0,0.0,0.0,0.0,0.0,0.0,0.0,0.0,0.0,0.0,0.0,0.0,0.0,0.0,0.0,0.0,0.0,1.4299,1.4299,1.4299,1.4299,1.4299,1.4299,1.4299,1.4299,1.4299,1.4299,1.4299,1.4299,1.4299,1.4299,1.4299,1.4299,1.4299,1.4299,1.4326,1.4516,1.4652,1.4767,1.497,1.5099,1.5181,1.5181,1.5181,1.5181,1.5181,1.5181,1.5181,1.5181,1.5181,1.5181,1.5181,1.5181,1.5181,1.5181,1.5181,1.5181,1.5181,1.5181,1.5181,1.5181,1.5181,1.5181,1.5181,1.5181,1.5181,1.5181,1.5181,1.5181,1.5181,1.5181,1.5181,1.5181,1.5181,1.5181,1.5181,1.5181,1.5181,1.5181,1.5181,1.5181,1.5181,1.5181,1.5181,1.5181,1.5181,1.5181,1.5181,1.5181,1.5181,1.5181,1.5181,1.5181,1.041,0.0,0.0,0.0,0.0,0.0,0.0,0.0,0.0,0.0,0.0,0.0,0.0,0.0,0.0,0.0,0.0,0.0,0.0,0.0,0.0,0.0,0.0,0.0,0.0,0.0,0.0,0.0,0.0,0.0,0.0,0.0,0.0,0.0,0.0,0.0,1.4299,1.4299,1.4299,1.4299,1.4299,1.4299,1.4299,1.4299,1.4299,1.4299,1.4299,1.4299,1.4299,1.4299,1.4299,1.4299,1.4299,1.4299,1.434,1.4631,1.474,1.4787,1.5079,1.5181,1.5181,1.5181,1.5181,1.5181,1.5181,1.5181,1.5181,1.5181,1.5181,1.5181,1.5181,1.5181,1.5181,1.5181,1.5181,1.5181,1.5181,1.5181,1.5181,1.5181,1.5181,1.5181,1.5181,1.5181,1.5181,1.5181,1.5181,1.5181,1.5181,1.5181,1.5181,1.5181,1.5181,1.5181,1.5181,1.5181,1.5181,1.5181,1.5181,1.5181,1.5181,1.5181,1.5181,1.5181,1.5181,1.5181,1.5181,1.5181,1.5181,1.5181,1.5181,1.5181,1.0256,0.0,0.0,0.0,0.0,0.0,0.0,0.0,0.0,0.0,0.0,0.0,0.0,0.0,0.0,0.0,0.0,0.0,0.0,0.0,0.0,0.0,0.0,0.0,0.0,0.0,0.0,0.0,0.0,0.0,0.0,0.0,0.0,0.0,0.0,0.0,1.4299,1.4299,1.4299,1.4299,1.4299,1.4299,1.4299,1.4299,1.4299,1.4299,1.4299,1.4299,1.4299,1.4299,1.4299,1.4299,1.4299,1.436,1.4475,1.4665,1.4808,1.493,1.512,1.5181,1.5181,1.5181,1.5181,1.5181,1.5181,1.5181,1.5181,1.5181,1.5181,1.5181,1.5181,1.5181,1.5181,1.5181,1.5181,1.5181,1.5181,1.5181,1.5181,1.5181,1.5181,1.5181,1.5181,1.5181,1.5181,1.5181,1.5181,1.5181,1.5181,1.5181,1.5181,1.5181,1.5181,1.5181,1.5181,1.5181,1.5181,1.5181,1.5181,1.5181,1.5181,1.5181,1.5181,1.5181,1.5181,1.5181,1.5181,1.5181,1.5181,1.5181,1.5181,1.5181,0.0,0.0,0.0,0.0,0.0,0.0,0.0,0.0,0.0,0.0,0.0,0.0,0.0,0.0,0.0,0.0,0.0,0.0,0.0,0.0,0.0,0.0,0.0,0.0,0.0,0.0,0.0,0.0,0.0,0.0,0.0,0.0,0.0,0.0,0.0,0.0,1.4299,1.4299,1.4299,1.4299,1.4299,1.4299,1.4299,1.4299,1.4299,1.4299,1.4299,1.4299,1.4299,1.4299,1.4299,1.4299,1.4299,1.4387,1.4529,1.4685,1.4835,1.4991,1.5133,1.5181,1.5181,1.5181,1.5181,1.5181,1.5181,1.5181,1.5181,1.5181,1.5181,1.5181,1.5181,1.5181,1.5181,1.5181,1.5181,1.5181,1.5181,1.5181,1.5181,1.5181,1.5181,1.5181,1.5181,1.5181,1.5181,1.5181,1.5181,1.5181,1.5181,1.5181,1.5181,1.5181,1.5181,1.5181,1.5181,1.5181,1.5181,1.5181,1.5181,1.5181,1.5181,1.5181,1.5181,1.5181,1.5181,1.5181,1.5181,1.5181,1.5181,1.5181,1.5181,1.5181,0.0,0.0,0.0,0.0,0.0,0.0,0.0,0.0,0.0,0.0,0.0,0.0,0.0,0.0,0.0,0.0,0.0,0.0,0.0,0.0,0.0,0.0,0.0,0.0,0.0,0.0,0.0,0.0,0.0,0.0,0.0,0.0,0.0,0.0,0.0,0.0,1.4299,1.4299,1.4299,0.0,1.4299,1.4299,1.4299,1.4299,1.4299,1.4299,1.4299,1.4299,1.4299,1.4299,1.4299,1.4299,1.4299,1.4394,1.455,1.4692,1.4848,1.5011,1.514,1.5181,1.5181,1.5181,1.5181,1.5181,1.5181,1.5181,1.5181,1.5181,1.5181,1.5181,1.5181,1.5181,1.5181,1.5181,1.5181,1.5181,1.5181,1.5181,1.5181,1.5181,1.5181,1.5181,1.5181,1.5181,1.5181,1.5181,1.5181,1.5181,1.5181,1.5181,1.5181,1.5181,1.5181,1.5181,1.5181,1.5181,1.5181,1.5181,1.5181,1.5181,1.5181,1.5181,1.5181,1.5181,1.5181,1.5181,1.5181,1.5181,1.5181,1.5181,1.5181,1.5181,0.0,0.0,0.0,0.0,0.0,0.0,0.0,0.0,0.0,0.0,0.0,0.0,0.0,0.0,0.0,0.0,0.0,0.0,0.0,0.0,0.0,0.0,0.0,0.0,0.0,0.0,0.0,0.0,0.0,0.0,0.0,0.0,0.0,0.0,0.0,1.4299,1.4299,1.4299,1.4299,0.0,1.4299,1.4299,1.4299,1.4299,1.4299,1.4299,1.4299,1.4299,1.4299,1.4299,1.4299,1.4299,1.4299,1.4462,1.4692,1.4726,1.4909,1.514,1.5174,1.5181,1.5181,1.5181,1.5181,1.5181,1.5181,1.5181,1.5181,1.5181,1.5181,1.5181,1.5181,1.5181,1.5181,1.5181,1.5181,1.5181,1.5181,1.5181,1.5181,1.5181,1.5181,1.5181,1.5181,1.5181,1.5181,1.5181,1.5181,1.5181,1.5181,1.5181,1.5181,1.5181,1.5181,1.5181,1.5181,1.5181,1.5181,1.5181,1.5181,1.5181,1.5181,1.5181,1.5181,1.5181,1.5181,1.5181,1.5181,1.5181,1.5181,1.5181,1.5181,1.5181,0.0,0.0,0.0,0.0,0.0,0.0,0.0,0.0,0.0,0.0,0.0,0.0,0.0,0.0,0.0,0.0,0.0,0.0,0.0,0.0,0.0,0.0,0.0,0.0,0.0,0.0,0.0,0.0,0.0,0.0,0.0,0.0,0.0,0.0,1.4299,1.4299,1.4299,1.4299,1.4299,1.4299,1.4299,1.4299,1.4299,1.4299,1.4299,1.4299,1.4299,1.4299,1.4299,1.4299,1.4299,1.4299,1.4299,1.4482,1.474,1.474,1.493,1.5181,1.5181,1.5181,1.5181,1.5181,1.5181,1.5181,1.5181,1.5181,1.5181,1.5181,1.5181,1.5181,1.5181,1.5181,1.5181,1.5181,1.5181,1.5181,1.5181,1.5181,1.5181,1.5181,1.5181,1.5181,1.5181,1.5181,1.5181,1.5181,1.5181,1.5181,1.5181,1.5181,1.5181,1.5181,1.5181,1.5181,1.5181,1.5181,1.5181,1.5181,1.5181,1.5181,1.5181,1.5181,1.5181,1.5181,1.5181,1.5181,1.5181,1.5181,1.5181,1.5181,1.5181,1.5181,0.0,0.0,0.0,0.0,0.0,0.0,0.0,0.0,0.0,0.0,0.0,0.0,0.0,0.0,0.0,0.0,0.0,0.0,0.0,0.0,0.0,0.0,0.0,0.0,0.0,0.0,0.0,0.0,0.0,0.0,0.0,0.0,1.4272,1.4299,1.4299,1.4299,1.4299,1.4299,1.4299,1.4299,1.4299,1.4299,1.4299,1.4299,1.4299,1.4299,1.4299,1.4299,1.4299,1.4299,1.4299,1.4299,1.4299,1.4482,1.474,1.474,1.493,1.5181,1.5181,1.5181,1.5181,1.5181,1.5181,1.5181,1.5181,1.5181,1.5181,1.5181,1.5181,1.5181,1.5181,1.5181,1.5181,1.5181,1.5181,1.5181,1.5181,1.5181,1.5181,1.5181,1.5181,1.5181,1.5181,1.5181,1.5181,1.5181,1.5181,1.5181,1.5181,1.5181,1.5181,1.5181,1.5181,1.5181,1.5181,1.5181,1.5181,1.5181,1.5181,1.5181,1.5181,1.5181,1.5181,1.5181,1.5181,1.5181,1.5181,1.5181,1.5181,1.5181,1.5181,1.5181,0.0,0.0,0.0,0.0,0.0,0.0,0.0,0.0,0.0,0.0,0.0,0.0,0.0,0.0,0.0,0.0,0.0,0.0,0.0,0.0,0.0,0.0,0.0,0.0,0.0,0.0,0.0,0.0,0.0,0.0,0.0,1.4007,1.4163,1.4299,1.4299,1.4299,1.4299,1.4299,1.4299,1.4299,1.4299,1.4299,1.4299,1.4299,1.4299,1.4299,1.4299,1.4299,1.4299,1.4299,1.4299,1.4299,1.4299,1.4482,1.474,1.474,1.493,1.5181,1.5181,1.5181,1.5181,1.5181,1.5181,1.5181,1.5181,1.5181,1.5181,1.5181,1.5181,1.5181,1.5181,1.5181,1.5181,1.5181,1.5181,1.5181,1.5181,1.5181,1.5181,1.5181,1.5181,1.5181,1.5181,1.5181,1.5181,1.5181,1.5181,1.5181,1.5181,1.5181,1.5181,1.5181,1.5181,1.5181,1.5181,1.5181,1.5181,1.5181,1.5181,1.5181,1.5181,1.5181,1.5181,1.5181,1.5181,1.5181,1.5181,1.5181,1.5181,1.5181,1.5181,1.5181,0.0,0.0,0.0,0.0,0.0,0.0,0.0,0.0,0.0,0.0,0.0,0.0,0.0,0.0,0.0,0.0,0.0,0.0,0.0,0.0,0.0,0.0,0.0,0.0,0.0,0.0,0.0,0.0,0.0,0.0,1.3831,1.3987,1.4143,1.4292,1.4299,1.4299,1.4299,1.4299,1.4299,1.4299,1.4299,1.4299,1.4299,1.4299,1.4299,1.4299,1.4299,1.4299,1.4299,1.4299,1.4299,1.4299,1.4299,1.4482,1.474,1.474,1.493,1.5181,1.5181,1.5181,1.5181,1.5181,1.5181,1.5181,1.5181,1.5181,1.5181,1.5181,1.5181,1.5181,1.5181,1.5181,1.5181,1.5181,1.5181,1.5181,1.5181,1.5181,1.5181,1.5181,1.5181,1.5181,1.5181,1.5181,1.5181,1.5181,1.5181,1.5181,1.5181,1.5181,1.5181,1.5181,1.5181,1.5181,1.5181,1.5181,1.5181,1.5181,1.5181,1.5181,1.5181,1.5181,1.5181,1.5181,1.5181,1.5181,1.5181,1.5181,1.5181,1.5181,1.5181,1.5181,0.0,0.0,0.0,0.0,0.0,0.0,0.0,0.0,0.0,0.0,0.0,0.0,0.0,0.0,0.0,0.0,0.0,0.0,0.0,0.0,0.0,0.0,0.0,0.0,0.0,0.0,0.0,0.0,0.0,0.0,1.3831,1.3953,1.4102,1.4292,1.4299,1.4299,1.4299,1.4299,1.4299,1.4299,1.4299,1.4299,1.4299,1.4299,1.4299,1.4299,1.4299,1.4299,1.4299,1.4299,1.4299,1.4299,1.4299,1.4482,1.474,1.474,1.493,1.5181,1.5181,1.5181,1.5181,1.5181,1.5181,1.5181,1.5181,1.5181,1.5181,1.5181,1.5181,1.5181,1.5181,1.5181,1.5181,1.5181,1.5181,1.5181,1.5181,1.5181,1.5181,1.5181,1.5181,1.5181,1.5181,1.5181,1.5181,1.5181,1.5181,1.5181,1.5181,1.5181,1.5181,1.5181,1.5181,1.5181,1.5181,1.5181,1.5181,1.5181,1.5181,1.5181,1.5181,1.5181,1.5181,1.5181,1.5181,1.5181,1.5181,1.5181,1.5181,1.5181,1.5181,1.5181,0.0,0.0,0.0,0.0,0.0,0.0,0.0,0.0,0.0,0.0,0.0,0.0,0.0,0.0,0.0,0.0,0.0,0.0,0.0,0.0,0.0,0.0,0.0,0.0,0.0,0.0,0.0,0.0,0.0,0.0,1.3824,1.3844,1.3994,1.4292,1.4299,1.4299,1.4299,1.4299,1.4299,1.4299,1.4299,1.4299,1.4299,1.4299,1.4299,1.4299,1.4299,1.4299,1.4299,1.4299,1.4299,1.4299,1.4299,1.4482,1.474,1.474,1.493,1.5181,1.5181,1.5181,1.5181,1.5181,1.5181,1.5181,1.5181,1.5181,1.5181,1.5181,1.5181,1.5181,1.5181,1.5181,1.5181,1.5181,1.5181,1.5181,1.5181,1.5181,1.5181,1.5181,1.5181,1.5181,1.5181,1.5181,1.5181,1.5181,1.5181,1.5181,1.5181,1.5181,1.5181,1.5181,1.5181,1.5181,1.5181,1.5181,1.5181,1.5181,1.5181,1.5181,1.5181,1.5181,1.5181,1.5181,1.5181,1.5181,1.5181,1.5181,1.5181,1.5181,1.5181,1.5181,0.0,0.0,0.0,0.0,0.0,0.0,0.0,0.0,0.0,0.0,0.0,0.0,0.0,0.0,0.0,0.0,0.0,0.0,0.0,0.0,0.0,0.0,0.0,0.0,0.0,0.0,0.0,0.0,0.0,0.0,1.3695,1.379,1.3939,1.415,1.4251,1.4299,1.4299,1.4299,1.4299,1.4299,1.4299,1.4299,1.4299,1.4299,1.4299,1.4299,1.4299,1.4299,1.4299,1.4299,1.4299,1.4299,1.4299,1.4482,1.474,1.474,1.493,1.5181,1.5181,1.5181,1.5181,1.5181,1.5181,1.5181,1.5181,1.5181,1.5181,1.5181,1.5181,1.5181,1.5181,1.5181,1.5181,1.5181,1.5181,1.5181,1.5181,1.5181,1.5181,1.5181,1.5181,1.5181,1.5181,1.5181,1.5181,1.5181,1.5181,1.5181,1.5181,1.5181,1.5181,1.5181,1.5181,1.5181,1.5181,1.5181,1.5181,1.5181,1.5181,1.5181,1.5181,1.5181,1.5181,1.5181,1.5181,1.5181,1.5181,1.5181,1.5181,1.5181,1.5181,1.5181,0.0,0.0,0.0,0.0,0.0,0.0,0.0,0.0,0.0,0.0,0.0,0.0,0.0,0.0,0.0,0.0,0.0,0.0,0.0,0.0,0.0,0.0,0.0,0.0,0.0,0.0,0.0,0.0,0.0,0.0,1.362,1.3763,1.3933,1.4143,1.4245,1.4299,1.4299,1.4299,1.4299,1.4299,1.4299,1.4299,1.4299,1.4299,1.4299,1.4299,1.4299,1.4299,1.4299,1.4299,1.4299,1.4299,1.4299,1.4482,1.474,1.474,1.493,1.5181,1.5181,1.5181,1.5181,1.5181,1.5181,1.5181,1.5181,1.5181,1.5181,1.5181,1.5181,1.5181,1.5181,1.5181,1.5181,1.5181,1.5181,1.5181,1.5181,1.5181,1.5181,1.5181,1.5181,1.5181,1.5181,1.5181,1.5181,1.5181,1.5181,1.5181,1.5181,1.5181,1.5181,1.5181,1.5181,1.5181,1.5181,1.5181,1.5181,1.5181,1.5181,1.5181,1.5181,1.5181,1.5181,1.5181,1.5181,1.5181,1.5181,1.5181,1.5181,1.5181,1.5181,1.5181,0.0,0.0,0.0,0.0,0.0,0.0,0.0,0.0,0.0,0.0,0.0,0.0,0.0,0.0,0.0,0.0,0.0,0.0,0.0,0.0,0.0,0.0,0.0,0.0,0.0,0.0,0.0,0.0,0.0,1.3464,1.3614,1.3763,1.398,1.4285,1.4299,1.4299,1.4299,1.4299,1.4299,1.4299,1.4299,1.4299,1.4299,1.4299,1.4299,1.4299,1.4299,1.4299,1.4299,1.4299,1.4299,1.4299,1.4299,1.4482,1.474,1.474,1.493,1.5181,1.5181,1.5181,1.5181,1.5181,1.5181,1.5181,1.5181,1.5181,1.5181,1.5181,1.5181,1.5181,1.5181,1.5181,1.5181,1.5181,1.5181,1.5181,1.5181,1.5181,1.5181,1.5181,1.5181,1.5181,1.5181,1.5181,1.5181,1.5181,1.5181,1.5181,1.5181,1.5181,1.5181,1.5181,1.5181,1.5181,1.5181,1.5181,1.5181,1.5181,1.5181,1.5181,1.5181,1.5181,1.5181,1.5181,1.5181,1.5181,1.5181,1.5181,1.5181,1.5181,1.5181,1.5181,1.0717,0.0,0.0,0.0,0.0,0.0,0.0,0.0,0.0,0.0,0.0,0.0,0.0,0.0,0.0,0.0,0.0,0.0,0.0,0.0,0.0,0.0,0.0,0.0,0.0,0.0,0.0,0.0,1.3403,1.3417,1.3464,1.3702,1.3933,1.4129,1.4245,1.4299,1.4299,1.4299,1.4299,1.4299,1.4299,1.4299,1.4299,1.4299,1.4299,1.4299,1.4299,1.4299,1.4299,1.4299,1.4299,1.4299,1.4299,1.4482,1.474,1.474,1.493,1.5181,1.5181,1.5181,1.5181,1.5181,1.5181,1.5181,1.5181,1.5181,1.5181,1.5181,1.5181,1.5181,1.5181,1.5181,1.5181,1.5181,1.5181,1.5181,1.5181,1.5181,1.5181,1.5181,1.5181,1.5181,1.5181,1.5181,1.5181,1.5181,1.5181,1.5181,1.5181,1.5181,1.5181,1.5181,1.5181,1.5181,1.5181,1.5181,1.5181,1.5181,1.5181,1.5181,1.5181,1.5181,1.5181,1.5181,1.5181,1.5181,1.5181,1.5181,1.5181,1.5181,1.5181,1.5181,0.0,0.0,0.0,0.0,0.0,0.0,0.0,1.1619,0.0,0.0,0.0,0.0,0.0,0.0,0.0,0.0,0.0,0.0,0.0,0.0,0.0,0.0,0.0,0.0,0.0,0.0,0.0,0.0,1.3403,1.3431,1.3492,1.3661,1.3851,1.4061,1.4156,1.4238,1.4299,1.4299,1.4299,1.4299,1.4299,1.4299,1.4299,1.4299,1.4299,1.4299,1.4299,1.4299,1.4299,1.4299,1.4299,1.4299,1.4299,1.4482,1.474,1.474,1.493,1.5181,1.5181,1.5181,1.5181,1.5181,1.5181,1.5181,1.5181,1.5181,1.5181,1.5181,1.5181,1.5181,1.5181,1.5181,1.5181,1.5181,1.5181,1.5181,1.5181,1.5181,1.5181,1.5181,1.5181,1.5181,1.5181,1.5181,1.5181,1.5181,1.5181,1.5181,1.5181,1.5181,1.5181,1.5181,1.5181,1.5181,1.5181,1.5181,1.5181,1.5181,1.5181,1.5181,1.5181,1.5181,1.5181,1.5181,1.5181,1.5181,1.5181,1.5181,1.5181,1.5181,1.5181,1.5181,0.0,0.0,0.0,0.0,0.0,0.0,1.1619,1.1619,1.1619,0.0,0.0,0.0,0.0,0.0,0.0,0.0,0.0,0.0,0.0,0.0,0.0,0.0,0.0,0.0,0.0,0.0,1.3383,1.3397,1.3403,1.3458,1.3593,1.362,1.3756,1.4041,1.4061,1.4143,1.4299,1.4299,1.4299,1.4299,1.4299,1.4299,1.4299,1.4299,1.4299,1.4299,1.4299,1.4299,1.4299,1.4299,1.4299,1.4299,1.4299,1.4482,1.474,1.474,1.493,1.5181,1.5181,1.5181,1.5181,1.5181,1.5181,1.5181,1.5181,1.5181,1.5181,1.5181,1.5181,1.5181,1.5181,1.5181,1.5181,1.5181,1.5181,1.5181,1.5181,1.5181,1.5181,1.5181,1.5181,1.5181,1.5181,1.5181,1.5181,1.5181,1.5181,1.5181,1.5181,1.5181,1.5181,1.5181,1.5181,1.5181,1.5181,1.5181,1.5181,1.5181,1.5181,1.5181,1.5181,1.5181,1.5181,1.5181,1.5181,1.5181,1.5181,1.5181,1.5181,1.5181,1.5181,1.5181,0.0,0.0,0.0,0.0,0.0,0.0,1.1619,1.1619,1.1619,0.0,0.0,0.0,0.0,0.0,0.0,0.0,0.0,0.0,0.0,0.0,0.0,0.0,0.0,0.0,0.0,0.0,1.3268,1.339,1.3403,1.341,1.3444,1.3559,1.3709,1.3878,1.4007,1.4143,1.4299,1.4299,1.4299,1.4299,1.4299,1.4299,1.4299,1.4299,1.4299,1.4299,1.4299,1.4299,1.4299,1.4299,1.4299,1.4299,1.4299,1.4482,1.474,1.474,1.493,1.5181,1.5181,1.5181,1.5181,1.5181,1.5181,1.5181,1.5181,1.5181,1.5181,1.5181,1.5181,1.5181,1.5181,1.5181,1.5181,1.5181,1.5181,1.5181,1.5181,1.5181,1.5181,1.5181,1.5181,1.5181,1.5181,1.5181,1.5181,1.5181,1.5181,1.5181,1.5181,1.5181,1.5181,1.5181,1.5181,1.5181,1.5181,1.5181,1.5181,1.5181,1.5181,1.5181,1.5181,1.5181,1.5181,1.5181,1.5181,1.5181,1.5181,1.5181,1.5181,1.5181,1.5181,1.5181,0.0,0.0,0.0,1.1484,0.0,0.0,0.0,1.1619,1.1619,1.1619,0.0,0.0,0.0,0.0,0.0,0.0,0.0,0.0,0.0,0.0,0.0,0.0,0.0,0.0,0.0,0.0,1.3234,1.339,1.3403,1.3403,1.3403,1.3471,1.3587,1.3729,1.3878,1.4027,1.4183,1.4265,1.4299,1.4299,1.4299,1.4299,1.4299,1.4299,1.4299,1.4299,1.4299,1.4299,1.4299,1.4299,1.4299,1.4299,1.4299,1.4482,1.474,1.474,1.493,1.5181,1.5181,1.5181,1.5181,1.5181,1.5181,1.5181,1.5181,1.5181,1.5181,1.5181,1.5181,1.5181,1.5181,1.5181,1.5181,1.5181,1.5181,1.5181,1.5181,1.5181,1.5181,1.5181,1.5181,1.5181,1.5181,1.5181,1.5181,1.5181,1.5181,1.5181,1.5181,1.5181,1.5181,1.5181,1.5181,1.5181,1.5181,1.5181,1.5181,1.5181,1.5181,1.5181,1.5181,1.5181,1.5181,1.5181,1.5181,1.5181,1.5181,1.5181,1.5181,1.5181,1.5181,1.5181,0.0,0.0,0.0,0.0,0.0,1.1619,0.0,0.0,0.0,1.1619,0.0,0.0,0.0,0.0,0.0,0.0,0.0,0.0,0.0,0.0,0.0,0.0,0.0,0.0,0.0,0.0,1.322,1.3349,1.3383,1.3403,1.3403,1.3403,1.3471,1.3627,1.377,1.3912,1.4068,1.4224,1.4299,1.4299,1.4299,1.4299,1.4299,1.4299,1.4299,1.4299,1.4299,1.4299,1.4299,1.4299,1.4299,1.4299,1.4299,1.4482,1.474,1.474,1.493,1.5181,1.5181,1.5181,1.5181,1.5181,1.5181,1.5181,1.5181,1.5181,1.5181,1.5181,1.5181,1.5181,1.5181,1.5181,1.5181,1.5181,1.5181,1.5181,1.5181,1.5181,1.5181,1.5181,1.5181,1.5181,1.5181,1.5181,1.5181,1.5181,1.5181,1.5181,1.5181,1.5181,1.5181,1.5181,1.5181,1.5181,1.5181,1.5181,1.5181,1.5181,1.5181,1.5181,1.5181,1.5181,1.5181,1.5181,1.5181,1.5181,1.5181,1.5181,1.5181,1.5181,1.5181,1.5181,0.0,0.0,0.0,0.0,1.1619,0.0,0.0,0.0,1.1619,1.1619,0.0,0.0,0.0,0.0,0.0,0.0,0.0,0.0,0.0,0.0,0.0,0.0,0.0,0.0,0.0,0.0,0.0,1.32,1.3322,1.3403,1.3403,1.3403,1.3471,1.3627,1.377,1.3912,1.4068,1.4224,1.4299,1.4299,1.4299,1.4299,1.4299,1.4299,1.4299,1.4299,1.4299,1.4299,1.4299,1.4299,1.4299,1.4299,1.4299,1.4482,1.474,1.474,1.493,1.5181,1.5181,1.5181,1.5181,1.5181,1.5181,1.5181,1.5181,1.5181,1.5181,1.5181,1.5181,1.5181,1.5181,1.5181,1.5181,1.5181,1.5181,1.5181,1.5181,1.5181,1.5181,1.5181,1.5181,1.5181,1.5181,1.5181,1.5181,1.5181,1.5181,1.5181,1.5181,1.5181,1.5181,1.5181,1.5181,1.5181,1.5181,1.5181,1.5181,1.5181,1.5181,1.5181,1.5181,1.5181,1.5181,1.5181,1.5181,1.5181,1.5181,1.5181,1.5181,1.5181,1.5181,1.5181,0.0,0.0,0.0,0.0,0.0,0.0,0.0,0.0,1.1619,0.0,0.0,0.0,0.0,0.0,0.0,0.0,0.0,0.0,0.0,0.0,0.0,0.0,0.0,0.0,0.0,0.0,0.0,0.0,0.0,1.3308,1.3397,1.3403,1.3431,1.3492,1.3641,1.379,1.3939,1.4089,1.4211,1.4299,1.4299,1.4299,1.4299,1.4299,1.4299,1.4299,1.4299,1.4299,1.4299,1.4299,1.4299,1.4299,1.4299,1.4482,1.474,1.474,1.493,1.5181,1.5181,1.5181,1.5181,1.5181,1.5181,1.5181,1.5181,1.5181,1.5181,1.5181,1.5181,1.5181,1.5181,1.5181,1.5181,1.5181,1.5181,1.5181,1.5181,1.5181,1.5181,1.5181,1.5181,1.5181,1.5181,1.5181,1.5181,1.5181,1.5181,1.5181,1.5181,1.5181,1.5181,1.5181,1.5181,1.5181,1.5181,1.5181,1.5181,1.5181,1.5181,1.5181,1.5181,1.5181,1.5181,1.5181,1.5181,1.5181,1.5181,1.5181,1.5181,1.5181,1.5181,1.5181,1.1619,0.0,0.0,0.0,0.0,0.0,0.0,0.0,0.0,0.0,0.0,0.0,0.0,0.0,0.0,0.0,0.0,0.0,0.0,0.0,0.0,0.0,0.0,0.0,0.0,0.0,0.0,0.0,1.3152,1.3241,1.339,1.3403,1.3403,1.3403,1.3553,1.3695,1.3838,1.3994,1.415,1.4299,1.4299,1.4299,1.4299,1.4299,1.4299,1.4299,1.4299,1.4299,1.4299,1.4299,1.4299,1.4299,1.4299,1.4482,1.474,1.474,1.493,1.5181,1.5181,1.5181,1.5181,1.5181,1.5181,1.5181,1.5181,1.5181,1.5181,1.5181,1.5181,1.5181,1.5181,1.5181,1.5181,1.5181,1.5181,1.5181,1.5181,1.5181,1.5181,1.5181,1.5181,1.5181,1.5181,1.5181,1.5181,1.5181,1.5181,1.5181,1.5181,1.5181,1.5181,1.5181,1.5181,1.5181,1.5181,1.5181,1.5181,1.5181,1.5181,1.5181,1.5181,1.5181,1.5181,1.5181,1.5181,1.5181,1.5181,1.5181,1.5181,1.5181,1.5181,1.5181,0.0,0.0,0.0,1.1619,0.0,0.0,0.0,0.0,1.1619,0.0,0.0,0.0,0.0,0.0,0.0,0.0,0.0,0.0,0.0,0.0,0.0,0.0,0.0,0.0,0.0,0.0,0.0,1.2956,1.3098,1.3241,1.339,1.3403,1.3403,1.3403,1.3553,1.3695,1.3838,1.3994,1.415,1.4299,1.4299,1.4299,1.4299,1.4299,1.4299,1.4299,1.4299,1.4299,1.4299,1.4299,1.4299,1.4299,1.4299,1.4482,1.474,1.474,1.493,1.5181,1.5181,1.5181,1.5181,1.5181,1.5181,1.5181,1.5181,1.5181,1.5181,1.5181,1.5181,1.5181,1.5181,1.5181,1.5181,1.5181,1.5181,1.5181,1.5181,1.5181,1.5181,1.5181,1.5181,1.5181,1.5181,1.5181,1.5181,1.5181,1.5181,1.5181,1.5181,1.5181,1.5181,1.5181,1.5181,1.5181,1.5181,1.5181,1.5181,1.5181,1.5181,1.5181,1.5181,1.5181,1.5181,1.5181,1.5181,1.5181,1.5181,1.5181,1.5181,1.5181,1.5181,1.5181,0.0,0.0,1.1619,1.1619,0.0,0.0,0.0,0.0,0.0,0.0,0.0,0.0,0.0,0.0,0.0,0.0,0.0,0.0,0.0,0.0,0.0,0.0,0.0,0.0,0.0,0.0,0.0,1.2793,1.2949,1.3098,0.0,1.3349,1.3403,1.3403,1.3451,1.3593,1.3838,1.3892,1.4048,1.4299,1.4299,1.4299,1.4299,1.4299,1.4299,1.4299,1.4299,1.4299,1.4299,1.4299,1.4299,1.4299,1.4299,1.4482,1.474,1.474,1.493,1.5181,1.5181,1.5181,1.5181,1.5181,1.5181,1.5181,1.5181,1.5181,1.5181,1.5181,1.5181,1.5181,1.5181,1.5181,1.5181,1.5181,1.5181,1.5181,1.5181,1.5181,1.5181,1.5181,1.5181,1.5181,1.5181,1.5181,1.5181,1.5181,1.5181,1.5181,1.5181,1.5181,1.5181,1.5181,1.5181,1.5181,1.5181,1.5181,1.5181,1.5181,1.5181,1.5181,1.5181,1.5181,1.5181,1.5181,1.5181,1.5181,1.5181,1.5181,1.5181,1.5181,1.5181,1.5181,1.1619,1.1619,0.0,1.1619,1.1619,0.0,1.1619,0.0,0.0,0.0,0.0,0.0,0.0,0.0,0.0,0.0,0.0,0.0,0.0,0.0,0.0,0.0,0.0,0.0,0.0,0.0,1.2508,1.2712,1.2874,1.3024,0.0,0.0,1.3403,1.3403,1.3403,1.3519,1.3763,1.3817,1.3966,1.4217,1.4272,1.4299,1.4299,1.4299,1.4299,1.4299,1.4299,1.4299,1.4299,1.4299,1.4299,1.4306,1.4353,1.4523,1.474,1.474,1.493,1.5181,1.5181,1.5181,1.5181,1.5181,1.5181,1.5181,1.5181,1.5181,1.5181,1.5181,1.5181,1.5181,1.5181,1.5181,1.5181,1.5181,1.5181,1.5181,1.5181,1.5181,1.5181,1.5181,1.5181,1.5181,1.5181,1.5181,1.5181,1.5181,1.5181,1.5181,1.5181,1.5181,1.5181,1.5181,1.5181,1.5181,1.5181,1.5181,1.5181,1.5181,1.5181,1.5181,1.5181,1.5181,1.5181,1.5181,1.5181,1.5181,1.5181,1.5181,1.5181,1.5181,1.5181,1.5181]}]]